IT9IJI-13 Weather Reports


Display with metric or nautical units.
time (UTC)temp
F
wind
direction
speed
MPH
gust
MPH
rain 1hr
in
rain 24hr
in
rain mn
in
humidity
%
barometer
mb
20260901115403 89 299 5.0 15.0 0.00 0.00 0.00 49 1016.9
20260901115306 89 299 5.0 15.0 0.00 0.00 0.00 49 1017.0
20260901115203 89 297 5.0 15.0 0.00 0.00 0.00 49 1016.8
20260901115103 89 298 5.0 15.0 0.00 0.00 0.00 49 1016.8
20260901115003 89 297 5.0 15.0 0.00 0.00 0.00 49 1016.8
20260901114903 89 297 6.0 15.0 0.00 0.00 0.00 49 1016.9
20260901114803 89 297 6.0 15.0 0.00 0.00 0.00 49 1017.0
20260901114703 89 297 6.0 15.0 0.00 0.00 0.00 49 1016.9
20260901114603 89 296 5.0 15.0 0.00 0.00 0.00 49 1016.9
20260901114503 89 295 5.0 12.0 0.00 0.00 0.00 49 1017.0
20260901114403 89 295 4.0 12.0 0.00 0.00 0.00 50 1016.9
20260901114303 89 296 4.0 12.0 0.00 0.00 0.00 50 1016.9
20260901114203 89 296 4.0 12.0 0.00 0.00 0.00 49 1016.8
20260901114103 89 297 4.0 12.0 0.00 0.00 0.00 49 1016.9
20260901114003 89 301 4.0 12.0 0.00 0.00 0.00 50 1016.9
20260901113903 89 303 4.0 12.0 0.00 0.00 0.00 50 1016.8
20260901113803 89 303 4.0 12.0 0.00 0.00 0.00 50 1016.8
20260901113703 89 304 5.0 12.0 0.00 0.00 0.00 50 1016.8
20260901113603 89 304 5.0 12.0 0.00 0.00 0.00 50 1016.8
20260901113503 89 303 5.0 12.0 0.00 0.00 0.00 49 1016.8
20260901113403 89 304 5.0 12.0 0.00 0.00 0.00 49 1016.8
20260901113303 89 304 5.0 12.0 0.00 0.00 0.00 49 1016.9
20260901113203 89 304 5.0 12.0 0.00 0.00 0.00 49 1016.9
20260901113103 89 304 4.0 12.0 0.00 0.00 0.00 49 1016.9
20260901113003 89 301 4.0 11.0 0.00 0.00 0.00 50 1016.8
20260901112903 89 300 3.0 11.0 0.00 0.00 0.00 49 1016.9
20260901112803 89 299 3.0 11.0 0.00 0.00 0.00 50 1016.9
20260901112703 89 297 3.0 7.0 0.00 0.00 0.00 50 1016.9
20260901112603 89 297 3.0 7.0 0.00 0.00 0.00 50 1016.8
20260901112503 89 298 2.0 7.0 0.00 0.00 0.00 50 1016.8
20260901112403 89 296 2.0 7.0 0.00 0.00 0.00 50 1016.9
20260901112306 89 297 3.0 8.0 0.00 0.00 0.00 50 1016.8
20260901112203 89 297 3.0 8.0 0.00 0.00 0.00 50 1016.8
20260901112103 89 298 3.0 8.0 0.00 0.00 0.00 50 1016.9
20260901112003 89 299 3.0 8.0 0.00 0.00 0.00 50 1016.8
20260901111903 89 298 3.0 8.0 0.00 0.00 0.00 50 1016.8
20260901111803 89 298 3.0 9.0 0.00 0.00 0.00 50 1016.8
20260901111703 89 298 3.0 9.0 0.00 0.00 0.00 50 1016.8
20260901111603 89 301 3.0 11.0 0.00 0.00 0.00 50 1016.9
20260901111503 89 299 4.0 13.0 0.00 0.00 0.00 50 1016.9
20260901111403 89 300 4.0 13.0 0.00 0.00 0.00 50 1016.9
20260901111303 89 301 4.0 13.0 0.00 0.00 0.00 50 1016.9
20260901111203 89 300 4.0 13.0 0.00 0.00 0.00 50 1016.8
20260901111103 89 300 4.0 13.0 0.00 0.00 0.00 50 1016.8
20260901111004 89 300 4.0 13.0 0.00 0.00 0.00 50 1016.9
20260901110904 89 302 4.0 13.0 0.00 0.00 0.00 50 1016.9
20260901110804 89 300 4.0 13.0 0.00 0.00 0.00 50 1016.8
20260901110704 89 299 4.0 13.0 0.00 0.00 0.00 50 1016.9
20260901110604 89 299 5.0 13.0 0.00 0.00 0.00 50 1016.9
20260901110504 89 300 5.0 12.0 0.00 0.00 0.00 50 1016.8
20260901110404 89 299 5.0 12.0 0.00 0.00 0.00 50 1016.9
20260901110304 89 299 4.0 12.0 0.00 0.00 0.00 51 1016.9
20260901110204 89 301 4.0 12.0 0.00 0.00 0.00 51 1016.9
20260901110104 89 302 4.0 12.0 0.00 0.00 0.00 51 1017.0
20260901110004 89 300 4.0 11.0 0.00 0.00 0.00 51 1017.0
20260901105904 89 300 4.0 11.0 0.00 0.00 0.00 50 1016.9
20260901105804 89 301 4.0 11.0 0.00 0.00 0.00 50 1017.1
20260901105704 89 304 4.0 11.0 0.00 0.00 0.00 50 1016.9
20260901105604 89 303 3.0 9.0 0.00 0.00 0.00 51 1017.0
20260901105504 89 304 3.0 8.0 0.00 0.00 0.00 51 1017.0
20260901105404 89 304 4.0 8.0 0.00 0.00 0.00 51 1017.0
20260901105305 89 304 4.0 8.0 0.00 0.00 0.00 51 1017.1
20260901105204 89 303 4.0 9.0 0.00 0.00 0.00 51 1017.1
20260901105104 89 301 4.0 9.0 0.00 0.00 0.00 51 1017.1
20260901105004 89 302 5.0 9.0 0.00 0.00 0.00 51 1017.1
20260901104904 89 301 5.0 10.0 0.00 0.00 0.00 51 1017.0
20260901104804 89 301 5.0 10.0 0.00 0.00 0.00 51 1017.0
20260901104704 89 300 5.0 10.0 0.00 0.00 0.00 51 1017.0
20260901104604 89 301 5.0 10.0 0.00 0.00 0.00 51 1017.0
20260901104504 89 300 5.0 10.0 0.00 0.00 0.00 51 1016.9
20260901104404 89 299 5.0 10.0 0.00 0.00 0.00 51 1017.0
20260901104304 89 299 5.0 10.0 0.00 0.00 0.00 51 1017.0
20260901104204 89 298 5.0 10.0 0.00 0.00 0.00 51 1017.0
20260901104104 89 299 5.0 10.0 0.00 0.00 0.00 50 1017.0
20260901104004 89 297 4.0 10.0 0.00 0.00 0.00 50 1017.0
20260901103904 89 296 4.0 10.0 0.00 0.00 0.00 50 1017.0
20260901103804 89 296 4.0 12.0 0.00 0.00 0.00 51 1017.0
20260901103704 89 298 4.0 12.0 0.00 0.00 0.00 51 1017.0
20260901103604 89 297 4.0 12.0 0.00 0.00 0.00 51 1017.0
20260901103504 89 296 4.0 14.0 0.00 0.00 0.00 51 1017.1
20260901103404 89 296 4.0 14.0 0.00 0.00 0.00 51 1017.0
20260901103304 89 295 4.0 14.0 0.00 0.00 0.00 51 1017.1
20260901103204 89 297 5.0 17.0 0.00 0.00 0.00 51 1017.1
20260901103104 89 298 5.0 17.0 0.00 0.00 0.00 51 1017.0
20260901103004 89 297 5.0 17.0 0.00 0.00 0.00 51 1017.1
20260901102904 89 300 5.0 17.0 0.00 0.00 0.00 51 1017.0
20260901102804 89 300 5.0 17.0 0.00 0.00 0.00 51 1017.1
20260901102704 89 299 5.0 17.0 0.00 0.00 0.00 51 1017.1
20260901102604 88 299 5.0 17.0 0.00 0.00 0.00 51 1017.0
20260901102503 88 299 5.0 17.0 0.00 0.00 0.00 51 1016.9
20260901102404 89 299 4.0 17.0 0.00 0.00 0.00 52 1016.9
20260901102306 88 300 4.0 17.0 0.00 0.00 0.00 52 1016.8
20260901102203 88 299 3.0 13.0 0.00 0.00 0.00 52 1016.8
20260901102103 88 298 3.0 13.0 0.00 0.00 0.00 52 1016.9
20260901102004 88 299 3.0 13.0 0.00 0.00 0.00 52 1016.9
20260901101903 88 298 2.0 10.0 0.00 0.00 0.00 53 1016.9
20260901101804 88 299 3.0 10.0 0.00 0.00 0.00 53 1016.9
20260901101703 88 298 3.0 10.0 0.00 0.00 0.00 53 1016.8
20260901101604 88 298 3.0 10.0 0.00 0.00 0.00 53 1016.9
20260901101503 88 299 3.0 10.0 0.00 0.00 0.00 53 1016.9
20260901101403 88 299 3.0 10.0 0.00 0.00 0.00 53 1016.9
20260901101303 88 298 3.0 10.0 0.00 0.00 0.00 52 1017.0
20260901101203 88 298 3.0 10.0 0.00 0.00 0.00 52 1016.9
20260901101103 88 298 3.0 10.0 0.00 0.00 0.00 53 1016.9
20260901101003 88 298 3.0 8.0 0.00 0.00 0.00 53 1016.9
20260901100903 88 298 3.0 8.0 0.00 0.00 0.00 53 1016.9
20260901100803 88 295 3.0 9.0 0.00 0.00 0.00 54 1016.9
20260901100703 88 295 3.0 9.0 0.00 0.00 0.00 54 1016.9
20260901100603 88 295 4.0 9.0 0.00 0.00 0.00 54 1016.9
20260901100503 88 296 4.0 9.0 0.00 0.00 0.00 54 1016.9
20260901100403 88 296 4.0 9.0 0.00 0.00 0.00 54 1017.0
20260901100303 88 296 4.0 9.0 0.00 0.00 0.00 55 1017.1
20260901100203 88 297 4.0 9.0 0.00 0.00 0.00 55 1017.0
20260901100103 88 297 5.0 9.0 0.00 0.00 0.00 55 1017.1
20260901100004 88 296 5.0 9.0 0.00 0.00 0.00 55 1017.2
20260901095903 88 297 4.0 9.0 0.00 0.00 0.00 55 1017.2
20260901095803 88 299 4.0 8.0 0.00 0.00 0.00 55 1017.0
20260901095703 88 300 3.0 7.0 0.00 0.00 0.00 55 1017.0
20260901095603 88 299 3.0 7.0 0.00 0.00 0.00 55 1017.0
20260901095503 88 297 3.0 7.0 0.00 0.00 0.00 54 1017.1
20260901095403 88 297 3.0 7.0 0.00 0.00 0.00 54 1017.0
20260901095306 88 298 3.0 7.0 0.00 0.00 0.00 55 1017.1
20260901095203 88 297 3.0 7.0 0.00 0.00 0.00 55 1017.0
20260901095103 88 297 3.0 7.0 0.00 0.00 0.00 55 1017.0
20260901095003 88 297 3.0 7.0 0.00 0.00 0.00 55 1017.1
20260901094903 88 296 2.0 7.0 0.00 0.00 0.00 55 1017.2
20260901094803 88 295 2.0 7.0 0.00 0.00 0.00 55 1017.3
20260901094703 88 294 2.0 7.0 0.00 0.00 0.00 55 1017.2
20260901094603 88 295 2.0 7.0 0.00 0.00 0.00 55 1017.3
20260901094503 88 298 3.0 8.0 0.00 0.00 0.00 55 1017.2
20260901094403 88 299 2.0 8.0 0.00 0.00 0.00 55 1017.3
20260901094303 88 298 2.0 8.0 0.00 0.00 0.00 54 1017.3
20260901094203 87 298 2.0 8.0 0.00 0.00 0.00 54 1017.2
20260901094103 88 298 2.0 8.0 0.00 0.00 0.00 54 1017.3
20260901094003 87 298 2.0 8.0 0.00 0.00 0.00 54 1017.3
20260901093903 87 297 2.0 8.0 0.00 0.00 0.00 54 1017.3
20260901093803 87 297 2.0 8.0 0.00 0.00 0.00 54 1017.3
20260901093703 87 298 2.0 8.0 0.00 0.00 0.00 54 1017.4
20260901093603 87 299 3.0 8.0 0.00 0.00 0.00 55 1017.4
20260901093503 87 298 2.0 10.0 0.00 0.00 0.00 55 1017.3
20260901093403 87 299 3.0 10.0 0.00 0.00 0.00 55 1017.4
20260901093303 87 298 3.0 10.0 0.00 0.00 0.00 56 1017.4
20260901093203 87 300 3.0 10.0 0.00 0.00 0.00 56 1017.5
20260901093103 87 301 3.0 10.0 0.00 0.00 0.00 56 1017.4
20260901093003 87 302 3.0 10.0 0.00 0.00 0.00 56 1017.3
20260901092903 87 302 3.0 10.0 0.00 0.00 0.00 56 1017.4
20260901092803 87 302 3.0 10.0 0.00 0.00 0.00 56 1017.4
20260901092703 87 301 3.0 10.0 0.00 0.00 0.00 56 1017.4
20260901092603 87 302 3.0 10.0 0.00 0.00 0.00 56 1017.3
20260901092503 87 304 3.0 9.0 0.00 0.00 0.00 56 1017.3
20260901092403 87 303 2.0 9.0 0.00 0.00 0.00 56 1017.3
20260901092305 87 302 2.0 9.0 0.00 0.00 0.00 56 1017.3
20260901092203 87 302 3.0 11.0 0.00 0.00 0.00 56 1017.4
20260901092103 87 302 3.0 11.0 0.00 0.00 0.00 56 1017.4
20260901092003 87 301 3.0 11.0 0.00 0.00 0.00 56 1017.3
20260901091903 87 302 4.0 11.0 0.00 0.00 0.00 56 1017.3
20260901091803 87 301 4.0 11.0 0.00 0.00 0.00 56 1017.3
20260901091703 87 301 5.0 11.0 0.00 0.00 0.00 56 1017.4
20260901091603 87 300 5.0 11.0 0.00 0.00 0.00 56 1017.3
20260901091503 87 298 5.0 11.0 0.00 0.00 0.00 56 1017.3
20260901091403 87 298 5.0 11.0 0.00 0.00 0.00 56 1017.4
20260901091303 87 298 5.0 11.0 0.00 0.00 0.00 56 1017.3
20260901091203 87 297 4.0 9.0 0.00 0.00 0.00 56 1017.3
20260901091103 87 296 4.0 9.0 0.00 0.00 0.00 56 1017.3
20260901091003 87 296 4.0 9.0 0.00 0.00 0.00 56 1017.3
20260901090903 87 294 3.0 9.0 0.00 0.00 0.00 56 1017.3
20260901090803 87 294 3.0 8.0 0.00 0.00 0.00 57 1017.3
20260901090703 87 292 3.0 8.0 0.00 0.00 0.00 57 1017.3
20260901090603 87 292 2.0 8.0 0.00 0.00 0.00 57 1017.3
20260901090503 87 292 2.0 7.0 0.00 0.00 0.00 57 1017.2
20260901090403 87 294 3.0 7.0 0.00 0.00 0.00 57 1017.2
20260901090303 87 295 3.0 7.0 0.00 0.00 0.00 57 1017.3
20260901090203 87 295 3.0 7.0 0.00 0.00 0.00 56 1017.2
20260901090003 87 295 3.0 7.0 0.00 0.00 0.00 56 1017.3
20260901085903 87 294 3.0 7.0 0.00 0.00 0.00 56 1017.4
20260901085803 87 295 3.0 7.0 0.00 0.00 0.00 57 1017.5
20260901085703 87 295 3.0 7.0 0.00 0.00 0.00 57 1017.4
20260901085603 87 296 3.0 12.0 0.00 0.00 0.00 57 1017.5
20260901085503 87 297 3.0 12.0 0.00 0.00 0.00 57 1017.5
20260901085403 87 297 3.0 12.0 0.00 0.00 0.00 57 1017.4
20260901085305 87 297 3.0 12.0 0.00 0.00 0.00 57 1017.4
20260901085203 87 297 2.0 12.0 0.00 0.00 0.00 57 1017.3
20260901085103 87 299 2.0 12.0 0.00 0.00 0.00 57 1017.4
20260901085003 87 299 3.0 12.0 0.00 0.00 0.00 57 1017.4
20260901084903 87 299 3.0 12.0 0.00 0.00 0.00 57 1017.4
20260901084803 87 299 3.0 12.0 0.00 0.00 0.00 57 1017.2
20260901084704 87 300 3.0 12.0 0.00 0.00 0.00 57 1017.3
20260901084604 87 300 2.0 9.0 0.00 0.00 0.00 57 1017.2
20260901084504 87 299 2.0 8.0 0.00 0.00 0.00 58 1017.2
20260901084404 87 299 2.0 8.0 0.00 0.00 0.00 57 1017.2
20260901084304 87 299 2.0 8.0 0.00 0.00 0.00 57 1017.2
20260901084204 87 301 2.0 8.0 0.00 0.00 0.00 57 1017.2
20260901084104 87 301 2.0 8.0 0.00 0.00 0.00 58 1017.3
20260901084004 87 302 2.0 11.0 0.00 0.00 0.00 58 1017.4
20260901083904 87 303 2.0 11.0 0.00 0.00 0.00 58 1017.3
20260901083804 87 300 3.0 11.0 0.00 0.00 0.00 58 1017.3
20260901083704 87 301 3.0 11.0 0.00 0.00 0.00 57 1017.3
20260901083604 87 303 3.0 11.0 0.00 0.00 0.00 57 1017.2
20260901083504 87 302 4.0 11.0 0.00 0.00 0.00 57 1017.2
20260901083404 87 303 4.0 11.0 0.00 0.00 0.00 57 1017.2
20260901083304 87 303 4.0 11.0 0.00 0.00 0.00 57 1017.3
20260901083204 87 302 5.0 11.0 0.00 0.00 0.00 57 1017.3
20260901083104 87 302 5.0 11.0 0.00 0.00 0.00 57 1017.3
20260901083004 87 301 4.0 9.0 0.00 0.00 0.00 58 1017.3
20260901082904 87 301 5.0 12.0 0.00 0.00 0.00 58 1017.3
20260901082804 87 302 4.0 12.0 0.00 0.00 0.00 58 1017.3
20260901082704 87 302 4.0 12.0 0.00 0.00 0.00 57 1017.4
20260901082604 87 300 4.0 12.0 0.00 0.00 0.00 57 1017.3
20260901082504 87 301 4.0 12.0 0.00 0.00 0.00 57 1017.4
20260901082404 87 301 4.0 12.0 0.00 0.00 0.00 56 1017.4
20260901082306 87 301 4.0 12.0 0.00 0.00 0.00 56 1017.3
20260901082204 87 300 3.0 12.0 0.00 0.00 0.00 56 1017.2
20260901082104 87 300 3.0 12.0 0.00 0.00 0.00 57 1017.4
20260901082004 87 300 3.0 12.0 0.00 0.00 0.00 57 1017.5
20260901081904 87 299 3.0 8.0 0.00 0.00 0.00 57 1017.5
20260901081804 87 301 3.0 10.0 0.00 0.00 0.00 57 1017.4
20260901081704 87 301 3.0 10.0 0.00 0.00 0.00 57 1017.4
20260901081604 87 301 3.0 10.0 0.00 0.00 0.00 57 1017.3
20260901081504 87 301 3.0 10.0 0.00 0.00 0.00 57 1017.1
20260901081404 87 300 3.0 10.0 0.00 0.00 0.00 57 1017.3
20260901081304 87 299 3.0 10.0 0.00 0.00 0.00 57 1017.4
20260901081204 87 299 3.0 10.0 0.00 0.00 0.00 57 1017.3
20260901081104 87 298 4.0 10.0 0.00 0.00 0.00 57 1017.4
20260901081004 87 300 4.0 10.0 0.00 0.00 0.00 57 1017.3
20260901080904 87 299 4.0 10.0 0.00 0.00 0.00 57 1017.0
20260901080804 87 298 3.0 8.0 0.00 0.00 0.00 57 1017.1
20260901080704 87 298 4.0 9.0 0.00 0.00 0.00 57 1017.0
20260901080604 87 298 4.0 9.0 0.00 0.00 0.00 57 1017.1
20260901080504 87 298 4.0 9.0 0.00 0.00 0.00 57 1017.0
20260901080404 87 298 5.0 12.0 0.00 0.00 0.00 57 1017.1
20260901080304 87 298 5.0 12.0 0.00 0.00 0.00 56 1017.1
20260901080204 87 298 4.0 12.0 0.00 0.00 0.00 56 1017.1
20260901080104 87 299 4.0 12.0 0.00 0.00 0.00 56 1017.1
20260901080004 87 298 4.0 12.0 0.00 0.00 0.00 56 1017.1
20260901075904 88 298 4.0 12.0 0.00 0.00 0.00 56 1017.1
20260901075804 88 298 4.0 12.0 0.00 0.00 0.00 56 1017.2
20260901075704 88 297 4.0 12.0 0.00 0.00 0.00 56 1017.0
20260901075604 88 298 4.0 12.0 0.00 0.00 0.00 56 1017.0
20260901075504 88 297 4.0 12.0 0.00 0.00 0.00 56 1017.1
20260901075404 88 297 4.0 11.0 0.00 0.00 0.00 56 1017.1
20260901075307 88 297 4.0 11.0 0.00 0.00 0.00 57 1017.0
20260901075204 88 297 4.0 11.0 0.00 0.00 0.00 56 1017.0
20260901075103 88 298 4.0 11.0 0.00 0.00 0.00 56 1017.0
20260901075003 88 298 4.0 11.0 0.00 0.00 0.00 56 1017.0
20260901074904 88 298 4.0 11.0 0.00 0.00 0.00 56 1017.2
20260901074803 88 298 4.0 9.0 0.00 0.00 0.00 57 1017.0
20260901074703 88 297 3.0 8.0 0.00 0.00 0.00 57 1017.0
20260901074604 87 298 4.0 8.0 0.00 0.00 0.00 57 1017.1
20260901074504 87 299 3.0 8.0 0.00 0.00 0.00 57 1016.9
20260901074403 87 299 3.0 8.0 0.00 0.00 0.00 57 1017.1
20260901074304 87 300 3.0 8.0 0.00 0.00 0.00 57 1017.1
20260901074203 87 299 3.0 8.0 0.00 0.00 0.00 57 1017.0
20260901074103 87 298 2.0 8.0 0.00 0.00 0.00 58 1017.0
20260901074004 87 298 2.0 8.0 0.00 0.00 0.00 58 1017.0
20260901073903 87 299 3.0 8.0 0.00 0.00 0.00 58 1017.0
20260901073803 87 299 3.0 8.0 0.00 0.00 0.00 58 1017.0
20260901073703 87 297 3.0 8.0 0.00 0.00 0.00 58 1017.1
20260901073603 87 295 3.0 8.0 0.00 0.00 0.00 59 1017.1
20260901073503 87 295 3.0 8.0 0.00 0.00 0.00 59 1017.0
20260901073403 86 297 3.0 10.0 0.00 0.00 0.00 59 1017.0
20260901073303 86 296 4.0 11.0 0.00 0.00 0.00 59 1017.1
20260901073203 86 297 4.0 11.0 0.00 0.00 0.00 60 1017.2
20260901073103 86 296 4.0 11.0 0.00 0.00 0.00 59 1017.0
20260901073004 86 296 5.0 11.0 0.00 0.00 0.00 60 1017.1
20260901072903 86 296 4.0 11.0 0.00 0.00 0.00 59 1017.1
20260901072803 86 296 5.0 11.0 0.00 0.00 0.00 59 1017.1
20260901072703 86 297 5.0 11.0 0.00 0.00 0.00 60 1017.1
20260901072603 86 299 5.0 11.0 0.00 0.00 0.00 60 1017.1
20260901072503 86 299 5.0 11.0 0.00 0.00 0.00 60 1017.3
20260901072403 86 298 5.0 11.0 0.00 0.00 0.00 60 1017.2
20260901072308 86 298 5.0 11.0 0.00 0.00 0.00 60 1017.2
20260901072203 86 299 5.0 11.0 0.00 0.00 0.00 60 1017.2
20260901072103 86 299 5.0 11.0 0.00 0.00 0.00 60 1017.2
20260901072003 86 299 5.0 12.0 0.00 0.00 0.00 60 1017.1
20260901071903 86 299 6.0 12.0 0.00 0.00 0.00 60 1017.1
20260901071804 86 300 6.0 12.0 0.00 0.00 0.00 60 1017.0
20260901071703 86 300 5.0 12.0 0.00 0.00 0.00 60 1017.1
20260901071603 86 299 5.0 12.0 0.00 0.00 0.00 60 1017.0
20260901071503 86 299 5.0 12.0 0.00 0.00 0.00 59 1016.9
20260901071403 86 300 5.0 12.0 0.00 0.00 0.00 59 1017.0
20260901071303 86 298 4.0 12.0 0.00 0.00 0.00 60 1017.1
20260901071203 87 298 4.0 12.0 0.00 0.00 0.00 59 1017.1
20260901071103 87 299 4.0 12.0 0.00 0.00 0.00 59 1017.0
20260901071003 87 301 3.0 9.0 0.00 0.00 0.00 59 1016.9
20260901070903 87 302 3.0 9.0 0.00 0.00 0.00 59 1017.0
20260901070803 87 302 4.0 12.0 0.00 0.00 0.00 59 1016.9
20260901070703 87 301 4.0 12.0 0.00 0.00 0.00 59 1016.9
20260901070603 87 301 5.0 12.0 0.00 0.00 0.00 59 1017.0
20260901070503 87 300 5.0 12.0 0.00 0.00 0.00 59 1017.0
20260901070403 87 299 5.0 12.0 0.00 0.00 0.00 59 1017.0
20260901070303 87 300 6.0 12.0 0.00 0.00 0.00 59 1016.9
20260901070203 87 301 6.0 12.0 0.00 0.00 0.00 59 1016.9
20260901070103 87 302 6.0 12.0 0.00 0.00 0.00 59 1016.9
20260901070003 87 301 6.0 12.0 0.00 0.00 0.00 58 1016.9
20260901065903 87 301 6.0 12.0 0.00 0.00 0.00 58 1017.0
20260901065803 87 300 6.0 12.0 0.00 0.00 0.00 58 1016.9
20260901065703 87 300 5.0 12.0 0.00 0.00 0.00 58 1016.9
20260901065603 87 299 5.0 12.0 0.00 0.00 0.00 59 1016.9
20260901065503 87 300 5.0 10.0 0.00 0.00 0.00 58 1016.9
20260901065403 87 300 5.0 10.0 0.00 0.00 0.00 58 1017.0
20260901065305 87 300 5.0 10.0 0.00 0.00 0.00 58 1017.0
20260901065203 88 301 5.0 11.0 0.00 0.00 0.00 58 1017.0
20260901065103 88 299 4.0 11.0 0.00 0.00 0.00 58 1017.0
20260901065003 88 300 4.0 11.0 0.00 0.00 0.00 58 1017.0
20260901064903 88 300 4.0 11.0 0.00 0.00 0.00 58 1017.0
20260901064803 88 300 4.0 11.0 0.00 0.00 0.00 58 1016.9
20260901064703 88 300 4.0 11.0 0.00 0.00 0.00 58 1016.7
20260901064603 88 301 4.0 11.0 0.00 0.00 0.00 59 1016.7
20260901064504 88 299 4.0 11.0 0.00 0.00 0.00 59 1016.7
20260901064403 87 299 4.0 11.0 0.00 0.00 0.00 59 1016.8
20260901064303 87 300 4.0 11.0 0.00 0.00 0.00 60 1016.8
20260901064203 87 297 4.0 9.0 0.00 0.00 0.00 60 1016.7
20260901064103 87 297 4.0 9.0 0.00 0.00 0.00 60 1016.8
20260901064003 87 297 4.0 10.0 0.00 0.00 0.00 60 1016.8
20260901063903 87 298 4.0 10.0 0.00 0.00 0.00 60 1016.9
20260901063803 87 297 4.0 10.0 0.00 0.00 0.00 61 1016.8
20260901063703 87 297 4.0 10.0 0.00 0.00 0.00 61 1016.8
20260901063603 87 297 4.0 10.0 0.00 0.00 0.00 62 1016.8
20260901063503 87 298 4.0 10.0 0.00 0.00 0.00 62 1016.9
20260901063403 87 297 4.0 10.0 0.00 0.00 0.00 62 1016.9
20260901063303 87 298 4.0 10.0 0.00 0.00 0.00 62 1016.9
20260901063203 87 298 5.0 10.0 0.00 0.00 0.00 63 1016.8
20260901063103 87 298 5.0 10.0 0.00 0.00 0.00 63 1016.8
20260901063003 86 297 5.0 10.0 0.00 0.00 0.00 63 1016.8
20260901062903 86 298 5.0 11.0 0.00 0.00 0.00 63 1016.7
20260901062803 86 298 5.0 11.0 0.00 0.00 0.00 63 1016.8
20260901062703 86 299 5.0 11.0 0.00 0.00 0.00 63 1016.7
20260901062603 86 300 5.0 11.0 0.00 0.00 0.00 63 1016.8
20260901062503 86 301 6.0 11.0 0.00 0.00 0.00 63 1016.8
20260901062403 86 301 6.0 11.0 0.00 0.00 0.00 63 1016.9
20260901062309 86 300 6.0 11.0 0.00 0.00 0.00 63 1016.8
20260901062203 86 301 5.0 11.0 0.00 0.00 0.00 64 1016.8
20260901062103 85 301 5.0 11.0 0.00 0.00 0.00 64 1016.9
20260901062003 85 301 5.0 11.0 0.00 0.00 0.00 64 1017.0
20260901061903 85 301 5.0 10.0 0.00 0.00 0.00 65 1016.9
20260901061804 85 301 5.0 10.0 0.00 0.00 0.00 65 1017.0
20260901061704 85 300 5.0 9.0 0.00 0.00 0.00 66 1016.9
20260901061604 85 297 5.0 9.0 0.00 0.00 0.00 66 1016.8
20260901061504 85 297 5.0 11.0 0.00 0.00 0.00 66 1016.9
20260901061404 84 297 5.0 11.0 0.00 0.00 0.00 66 1016.9
20260901061304 84 297 5.0 11.0 0.00 0.00 0.00 66 1016.9
20260901061204 84 298 5.0 12.0 0.00 0.00 0.00 66 1017.0
20260901061104 84 297 5.0 12.0 0.00 0.00 0.00 66 1017.0
20260901061004 84 296 5.0 12.0 0.00 0.00 0.00 66 1017.0
20260901060904 84 296 5.0 12.0 0.00 0.00 0.00 66 1017.0
20260901060804 84 297 5.0 12.0 0.00 0.00 0.00 66 1017.0
20260901060704 84 298 5.0 12.0 0.00 0.00 0.00 66 1016.9
20260901060604 84 299 5.0 12.0 0.00 0.00 0.00 66 1017.0
20260901060504 84 298 5.0 12.0 0.00 0.00 0.00 66 1017.0
20260901060404 84 298 6.0 12.0 0.00 0.00 0.00 66 1016.9
20260901060304 84 298 6.0 12.0 0.00 0.00 0.00 66 1016.9
20260901060204 84 297 6.0 13.0 0.00 0.00 0.00 66 1016.9
20260901060104 84 297 5.0 13.0 0.00 0.00 0.00 66 1016.9
20260901060004 84 300 5.0 13.0 0.00 0.00 0.00 66 1016.9
20260901055904 84 299 5.0 13.0 0.00 0.00 0.00 67 1017.0
20260901055804 84 299 5.0 13.0 0.00 0.00 0.00 67 1017.0
20260901055704 84 299 5.0 13.0 0.00 0.00 0.00 67 1016.8
20260901055604 84 299 5.0 13.0 0.00 0.00 0.00 67 1016.9
20260901055504 84 299 5.0 13.0 0.00 0.00 0.00 68 1016.9
20260901055404 84 298 4.0 13.0 0.00 0.00 0.00 68 1016.8
20260901055306 84 299 4.0 13.0 0.00 0.00 0.00 68 1016.7
20260901055204 84 299 4.0 11.0 0.00 0.00 0.00 69 1016.8
20260901055104 84 299 4.0 11.0 0.00 0.00 0.00 68 1016.8
20260901055004 83 298 4.0 11.0 0.00 0.00 0.00 69 1016.8
20260901054904 83 299 4.0 11.0 0.00 0.00 0.00 69 1016.8
20260901054804 83 300 4.0 11.0 0.00 0.00 0.00 69 1016.8
20260901054704 83 299 5.0 11.0 0.00 0.00 0.00 69 1016.8
20260901054604 83 300 4.0 11.0 0.00 0.00 0.00 69 1016.8
20260901054504 83 300 4.0 11.0 0.00 0.00 0.00 69 1016.7
20260901054404 83 300 5.0 11.0 0.00 0.00 0.00 69 1016.7
20260901054304 83 298 5.0 11.0 0.00 0.00 0.00 70 1016.7
20260901054204 83 298 5.0 11.0 0.00 0.00 0.00 70 1016.7
20260901054104 83 299 5.0 11.0 0.00 0.00 0.00 70 1016.7
20260901054004 83 299 5.0 11.0 0.00 0.00 0.00 70 1016.7
20260901053904 83 299 5.0 11.0 0.00 0.00 0.00 70 1016.7
20260901053804 83 298 5.0 11.0 0.00 0.00 0.00 70 1016.8
20260901053704 83 298 5.0 13.0 0.00 0.00 0.00 70 1016.8
20260901053604 83 298 5.0 13.0 0.00 0.00 0.00 70 1016.6
20260901053504 83 299 5.0 13.0 0.00 0.00 0.00 70 1016.7
20260901053404 82 300 6.0 13.0 0.00 0.00 0.00 70 1016.6
20260901053304 83 302 5.0 13.0 0.00 0.00 0.00 70 1016.6
20260901053204 83 303 5.0 13.0 0.00 0.00 0.00 70 1016.8
20260901053104 82 301 5.0 13.0 0.00 0.00 0.00 70 1016.7
20260901053004 82 301 5.0 13.0 0.00 0.00 0.00 70 1016.5
20260901052904 83 299 5.0 13.0 0.00 0.00 0.00 70 1016.6
20260901052804 82 299 5.0 13.0 0.00 0.00 0.00 70 1016.7
20260901052704 82 300 5.0 11.0 0.00 0.00 0.00 70 1016.7
20260901052604 82 299 5.0 11.0 0.00 0.00 0.00 70 1016.6
20260901052504 82 299 5.0 11.0 0.00 0.00 0.00 70 1016.6
20260901052404 82 299 5.0 11.0 0.00 0.00 0.00 70 1016.6
20260901052306 82 298 6.0 11.0 0.00 0.00 0.00 70 1016.6
20260901052203 82 298 5.0 11.0 0.00 0.00 0.00 70 1016.7
20260901052103 82 299 6.0 11.0 0.00 0.00 0.00 70 1016.6
20260901052004 82 299 6.0 11.0 0.00 0.00 0.00 70 1016.6
20260901051904 82 299 6.0 11.0 0.00 0.00 0.00 70 1016.7
20260901051803 82 298 5.0 11.0 0.00 0.00 0.00 70 1016.6
20260901051703 82 297 5.0 11.0 0.00 0.00 0.00 70 1016.5
20260901051603 82 297 5.0 11.0 0.00 0.00 0.00 70 1016.5
20260901051503 82 299 5.0 13.0 0.00 0.00 0.00 70 1016.5
20260901051403 82 300 5.0 13.0 0.00 0.00 0.00 70 1016.5
20260901051303 82 300 5.0 13.0 0.00 0.00 0.00 70 1016.5
20260901051203 82 302 5.0 13.0 0.00 0.00 0.00 70 1016.5
20260901051103 82 305 5.0 13.0 0.00 0.00 0.00 70 1016.5
20260901051003 82 305 5.0 13.0 0.00 0.00 0.00 70 1016.6
20260901050903 82 306 5.0 13.0 0.00 0.00 0.00 70 1016.6
20260901050803 82 308 5.0 13.0 0.00 0.00 0.00 70 1016.5
20260901050703 82 308 5.0 13.0 0.00 0.00 0.00 70 1016.5
20260901050603 82 309 5.0 13.0 0.00 0.00 0.00 71 1016.5
20260901050503 82 307 5.0 11.0 0.00 0.00 0.00 71 1016.5
20260901050403 82 306 5.0 11.0 0.00 0.00 0.00 71 1016.6
20260901050303 82 306 5.0 11.0 0.00 0.00 0.00 71 1016.6
20260901050203 82 303 5.0 11.0 0.00 0.00 0.00 71 1016.5
20260901050103 82 300 5.0 11.0 0.00 0.00 0.00 71 1016.5
20260901050003 82 299 5.0 9.0 0.00 0.00 0.00 71 1016.5
20260901045903 82 298 5.0 9.0 0.00 0.00 0.00 71 1016.5
20260901045803 82 297 5.0 9.0 0.00 0.00 0.00 71 1016.5
20260901045703 82 297 4.0 9.0 0.00 0.00 0.00 71 1016.5
20260901045603 82 297 4.0 9.0 0.00 0.00 0.00 71 1016.5
20260901045503 82 296 4.0 10.0 0.00 0.00 0.00 71 1016.5
20260901045403 82 297 4.0 10.0 0.00 0.00 0.00 71 1016.4
20260901045306 82 295 4.0 10.0 0.00 0.00 0.00 71 1016.5
20260901045203 82 296 4.0 10.0 0.00 0.00 0.00 71 1016.5
20260901045103 82 297 4.0 10.0 0.00 0.00 0.00 71 1016.4
20260901045003 82 299 4.0 10.0 0.00 0.00 0.00 71 1016.4
20260901044903 82 300 4.0 10.0 0.00 0.00 0.00 71 1016.4
20260901044803 82 301 4.0 11.0 0.00 0.00 0.00 71 1016.5
20260901044703 82 301 5.0 11.0 0.00 0.00 0.00 71 1016.5
20260901044603 82 301 5.0 11.0 0.00 0.00 0.00 71 1016.4
20260901044505 82 301 5.0 11.0 0.00 0.00 0.00 71 1016.5
20260901044403 82 300 5.0 11.0 0.00 0.00 0.00 71 1016.4
20260901044303 82 301 5.0 11.0 0.00 0.00 0.00 71 1016.5
20260901044203 82 301 5.0 11.0 0.00 0.00 0.00 71 1016.4
20260901044103 82 300 5.0 11.0 0.00 0.00 0.00 71 1016.4
20260901044003 82 301 5.0 11.0 0.00 0.00 0.00 71 1016.4
20260901043903 82 300 5.0 11.0 0.00 0.00 0.00 71 1016.3
20260901043803 82 299 5.0 11.0 0.00 0.00 0.00 71 1016.3
20260901043703 82 299 5.0 11.0 0.00 0.00 0.00 71 1016.3
20260901043603 82 297 5.0 11.0 0.00 0.00 0.00 71 1016.2
20260901043503 82 297 5.0 12.0 0.00 0.00 0.00 71 1016.3
20260901043403 82 298 6.0 12.0 0.00 0.00 0.00 71 1016.2
20260901043303 82 299 6.0 12.0 0.00 0.00 0.00 71 1016.3
20260901043203 82 298 6.0 12.0 0.00 0.00 0.00 71 1016.2
20260901043103 81 298 6.0 12.0 0.00 0.00 0.00 71 1016.3
20260901043003 81 296 6.0 12.0 0.00 0.00 0.00 71 1016.2
20260901042903 81 297 6.0 12.0 0.00 0.00 0.00 71 1016.2
20260901042803 81 297 6.0 12.0 0.00 0.00 0.00 71 1016.2
20260901042703 81 297 6.0 12.0 0.00 0.00 0.00 71 1016.3
20260901042603 81 298 6.0 12.0 0.00 0.00 0.00 71 1016.3
20260901042503 81 299 6.0 12.0 0.00 0.00 0.00 71 1016.3
20260901042403 81 298 5.0 12.0 0.00 0.00 0.00 71 1016.2
20260901042306 81 298 5.0 12.0 0.00 0.00 0.00 72 1016.3
20260901042203 81 298 5.0 12.0 0.00 0.00 0.00 72 1016.3
20260901042103 81 298 5.0 12.0 0.00 0.00 0.00 72 1016.2
20260901042003 81 300 5.0 10.0 0.00 0.00 0.00 72 1016.3
20260901041903 81 299 5.0 10.0 0.00 0.00 0.00 72 1016.2
20260901041803 81 298 5.0 9.0 0.00 0.00 0.00 72 1016.2
20260901041703 81 298 5.0 8.0 0.00 0.00 0.00 72 1016.2
20260901041603 81 298 5.0 8.0 0.00 0.00 0.00 72 1016.2
20260901041503 81 298 4.0 8.0 0.00 0.00 0.00 72 1016.2
20260901041403 81 298 4.0 8.0 0.00 0.00 0.00 72 1016.3
20260901041303 81 299 4.0 8.0 0.00 0.00 0.00 72 1016.3
20260901041203 81 300 4.0 8.0 0.00 0.00 0.00 72 1016.2
20260901041103 81 300 4.0 9.0 0.00 0.00 0.00 72 1016.3
20260901041003 81 298 4.0 9.0 0.00 0.00 0.00 72 1016.3
20260901040903 81 299 4.0 9.0 0.00 0.00 0.00 72 1016.3
20260901040803 81 299 4.0 9.0 0.00 0.00 0.00 72 1016.3
20260901040703 81 299 4.0 9.0 0.00 0.00 0.00 72 1016.3
20260901040603 81 299 4.0 9.0 0.00 0.00 0.00 72 1016.3
20260901040503 81 298 4.0 9.0 0.00 0.00 0.00 72 1016.3
20260901040403 81 299 4.0 9.0 0.00 0.00 0.00 72 1016.3
20260901040303 81 300 4.0 9.0 0.00 0.00 0.00 72 1016.4
20260901040203 81 300 4.0 9.0 0.00 0.00 0.00 72 1016.4
20260901040103 81 300 4.0 9.0 0.00 0.00 0.00 72 1016.4
20260901040003 81 300 4.0 9.0 0.00 0.00 0.00 72 1016.4
20260901035903 81 300 4.0 9.0 0.00 0.00 0.00 72 1016.3
20260901035803 81 300 4.0 9.0 0.00 0.00 0.00 72 1016.3
20260901035703 82 301 4.0 9.0 0.00 0.00 0.00 72 1016.3
20260901035603 81 300 4.0 9.0 0.00 0.00 0.00 72 1016.3
20260901035503 81 300 3.0 9.0 0.00 0.00 0.00 72 1016.3
20260901035403 81 300 4.0 9.0 0.00 0.00 0.00 72 1016.3
20260901035305 81 299 4.0 8.0 0.00 0.00 0.00 72 1016.3
20260901035203 81 299 4.0 9.0 0.00 0.00 0.00 72 1016.3
20260901035103 81 300 4.0 9.0 0.00 0.00 0.00 72 1016.4
20260901035004 81 300 4.0 9.0 0.00 0.00 0.00 72 1016.3
20260901034904 81 300 4.0 9.0 0.00 0.00 0.00 72 1016.3
20260901034804 81 300 4.0 9.0 0.00 0.00 0.00 72 1016.3
20260901034704 81 299 4.0 9.0 0.00 0.00 0.00 73 1016.3
20260901034604 81 299 4.0 9.0 0.00 0.00 0.00 73 1016.3
20260901034504 81 299 4.0 9.0 0.00 0.00 0.00 73 1016.3
20260901034404 81 298 4.0 9.0 0.00 0.00 0.00 73 1016.4
20260901034304 82 298 4.0 9.0 0.00 0.00 0.00 73 1016.4
20260901034204 82 297 4.0 9.0 0.00 0.00 0.00 73 1016.4
20260901034104 82 297 4.0 9.0 0.00 0.00 0.00 73 1016.4
20260901034004 82 297 4.0 9.0 0.00 0.00 0.00 73 1016.4
20260901033904 82 296 4.0 9.0 0.00 0.00 0.00 73 1016.4
20260901033804 82 298 4.0 9.0 0.00 0.00 0.00 73 1016.4
20260901033704 82 298 4.0 9.0 0.00 0.00 0.00 72 1016.4
20260901033604 82 299 4.0 9.0 0.00 0.00 0.00 72 1016.4
20260901033504 82 298 4.0 9.0 0.00 0.00 0.00 72 1016.4
20260901033404 82 298 4.0 9.0 0.00 0.00 0.00 72 1016.4
20260901033304 82 298 4.0 9.0 0.00 0.00 0.00 72 1016.4
20260901033204 82 298 3.0 9.0 0.00 0.00 0.00 72 1016.5
20260901033104 82 298 3.0 7.0 0.00 0.00 0.00 72 1016.5
20260901033004 82 299 3.0 7.0 0.00 0.00 0.00 72 1016.4
20260901032904 82 300 4.0 9.0 0.00 0.00 0.00 72 1016.5
20260901032804 82 299 4.0 9.0 0.00 0.00 0.00 72 1016.5
20260901032704 82 302 4.0 9.0 0.00 0.00 0.00 72 1016.4
20260901032604 82 300 4.0 9.0 0.00 0.00 0.00 72 1016.4
20260901032504 82 300 4.0 9.0 0.00 0.00 0.00 72 1016.4
20260901032404 82 301 4.0 9.0 0.00 0.00 0.00 72 1016.5
20260901032306 82 300 4.0 9.0 0.00 0.00 0.00 72 1016.5
20260901032204 82 300 4.0 9.0 0.00 0.00 0.00 72 1016.5
20260901032104 82 299 4.0 9.0 0.00 0.00 0.00 72 1016.5
20260901032004 82 299 4.0 9.0 0.00 0.00 0.00 72 1016.5
20260901031904 82 299 4.0 8.0 0.00 0.00 0.00 72 1016.4
20260901031804 82 296 3.0 8.0 0.00 0.00 0.00 72 1016.5
20260901031704 82 296 3.0 8.0 0.00 0.00 0.00 72 1016.5
20260901031604 82 297 4.0 9.0 0.00 0.00 0.00 72 1016.4
20260901031504 82 297 4.0 9.0 0.00 0.00 0.00 72 1016.3
20260901031404 82 297 4.0 9.0 0.00 0.00 0.00 72 1016.4
20260901031304 82 298 3.0 9.0 0.00 0.00 0.00 72 1016.4
20260901031204 82 298 3.0 9.0 0.00 0.00 0.00 72 1016.4
20260901031104 82 297 3.0 9.0 0.00 0.00 0.00 72 1016.4
20260901031004 81 298 3.0 9.0 0.00 0.00 0.00 72 1016.4
20260901030904 82 296 3.0 9.0 0.00 0.00 0.00 72 1016.4
20260901030804 82 294 4.0 9.0 0.00 0.00 0.00 72 1016.4
20260901030704 81 292 4.0 9.0 0.00 0.00 0.00 72 1016.4
20260901030604 81 290 4.0 9.0 0.00 0.00 0.00 72 1016.4
20260901030504 82 289 3.0 9.0 0.00 0.00 0.00 72 1016.4
20260901030404 82 289 4.0 9.0 0.00 0.00 0.00 72 1016.4
20260901030304 82 288 4.0 9.0 0.00 0.00 0.00 72 1016.4
20260901030203 82 290 4.0 9.0 0.00 0.00 0.00 72 1016.4
20260901030103 82 294 4.0 9.0 0.00 0.00 0.00 72 1016.4
20260901030004 82 294 4.0 9.0 0.00 0.00 0.00 72 1016.4
20260901025903 82 295 4.0 9.0 0.00 0.00 0.00 72 1016.4
20260901025803 82 295 4.0 9.0 0.00 0.00 0.00 72 1016.4
20260901025703 82 298 4.0 9.0 0.00 0.00 0.00 72 1016.4
20260901025604 82 299 4.0 9.0 0.00 0.00 0.00 72 1016.3
20260901025504 82 300 4.0 11.0 0.00 0.00 0.00 72 1016.3
20260901025404 82 302 4.0 11.0 0.00 0.00 0.00 72 1016.4
20260901025306 82 302 5.0 11.0 0.00 0.00 0.00 72 1016.5
20260901025203 82 302 5.0 11.0 0.00 0.00 0.00 72 1016.3
20260901025104 82 301 4.0 11.0 0.00 0.00 0.00 72 1016.5
20260901025004 82 301 5.0 11.0 0.00 0.00 0.00 72 1016.4
20260901024903 82 301 5.0 11.0 0.00 0.00 0.00 72 1016.5
20260901024803 82 302 5.0 11.0 0.00 0.00 0.00 72 1016.5
20260901024703 82 302 5.0 11.0 0.00 0.00 0.00 72 1016.5
20260901024603 82 301 5.0 11.0 0.00 0.00 0.00 72 1016.6
20260901024503 82 301 4.0 9.0 0.00 0.00 0.00 72 1016.5
20260901024403 82 299 5.0 9.0 0.00 0.00 0.00 72 1016.5
20260901024303 82 300 4.0 9.0 0.00 0.00 0.00 72 1016.5
20260901024203 82 300 4.0 9.0 0.00 0.00 0.00 72 1016.4
20260901024103 82 301 4.0 9.0 0.00 0.00 0.00 72 1016.4
20260901024003 82 299 4.0 9.0 0.00 0.00 0.00 72 1016.5
20260901023903 82 299 4.0 9.0 0.00 0.00 0.00 72 1016.5
20260901023803 82 297 4.0 9.0 0.00 0.00 0.00 72 1016.4
20260901023703 82 297 4.0 9.0 0.00 0.00 0.00 72 1016.5
20260901023603 82 297 4.0 9.0 0.00 0.00 0.00 72 1016.5
20260901023503 82 296 4.0 9.0 0.00 0.00 0.00 72 1016.5
20260901023403 82 297 4.0 8.0 0.00 0.00 0.00 72 1016.5
20260901023303 82 296 3.0 8.0 0.00 0.00 0.00 72 1016.5
20260901023203 82 295 4.0 8.0 0.00 0.00 0.00 72 1016.6
20260901023103 82 296 4.0 8.0 0.00 0.00 0.00 72 1016.5
20260901023003 82 296 4.0 8.0 0.00 0.00 0.00 72 1016.5
20260901022903 82 296 3.0 8.0 0.00 0.00 0.00 72 1016.5
20260901022803 82 297 3.0 8.0 0.00 0.00 0.00 72 1016.5
20260901022703 82 299 3.0 8.0 0.00 0.00 0.00 72 1016.5
20260901022603 82 300 2.0 8.0 0.00 0.00 0.00 72 1016.5
20260901022503 82 300 2.0 8.0 0.00 0.00 0.00 72 1016.5
20260901022403 82 300 2.0 6.0 0.00 0.00 0.00 72 1016.5
20260901022305 82 299 2.0 6.0 0.00 0.00 0.00 72 1016.6
20260901022203 82 300 2.0 6.0 0.00 0.00 0.00 72 1016.6
20260901022103 82 299 1.0 5.0 0.00 0.00 0.00 72 1016.5
20260901022003 82 298 2.0 5.0 0.00 0.00 0.00 72 1016.5
20260901021903 82 295 2.0 6.0 0.00 0.00 0.00 72 1016.6
20260901021803 82 295 2.0 6.0 0.00 0.00 0.00 72 1016.6
20260901021703 82 293 2.0 6.0 0.00 0.00 0.00 72 1016.6
20260901021603 82 294 3.0 6.0 0.00 0.00 0.00 72 1016.6
20260901021503 82 294 3.0 6.0 0.00 0.00 0.00 72 1016.7
20260901021403 82 294 3.0 6.0 0.00 0.00 0.00 72 1016.6
20260901021303 82 295 3.0 6.0 0.00 0.00 0.00 72 1016.6
20260901021203 82 295 3.0 6.0 0.00 0.00 0.00 71 1016.6
20260901021103 82 296 3.0 6.0 0.00 0.00 0.00 72 1016.7
20260901021003 82 296 3.0 6.0 0.00 0.00 0.00 72 1016.7
20260901020903 82 298 3.0 6.0 0.00 0.00 0.00 72 1016.6
20260901020803 82 300 3.0 6.0 0.00 0.00 0.00 71 1016.6
20260901020703 82 300 3.0 6.0 0.00 0.00 0.00 71 1016.7
20260901020603 82 300 2.0 6.0 0.00 0.00 0.00 71 1016.6
20260901020503 82 302 2.0 6.0 0.00 0.00 0.00 71 1016.6
20260901020403 82 304 2.0 6.0 0.00 0.00 0.00 71 1016.6
20260901020303 82 301 2.0 9.0 0.00 0.00 0.00 71 1016.6
20260901020203 82 303 2.0 10.0 0.00 0.00 0.00 71 1016.6
20260901020003 82 302 3.0 10.0 0.00 0.00 0.00 71 1016.5
20260901015903 82 303 3.0 11.0 0.00 0.00 0.00 71 1016.6
20260901015803 82 301 3.0 11.0 0.00 0.00 0.00 71 1016.5
20260901015703 82 301 3.0 11.0 0.00 0.00 0.00 71 1016.6
20260901015603 82 301 4.0 11.0 0.00 0.00 0.00 71 1016.6
20260901015503 82 301 4.0 11.0 0.00 0.00 0.00 71 1016.7
20260901015403 82 299 4.0 11.0 0.00 0.00 0.00 71 1016.6
20260901015305 82 300 4.0 11.0 0.00 0.00 0.00 71 1016.6
20260901015203 82 299 4.0 11.0 0.00 0.00 0.00 71 1016.6
20260901015103 82 297 4.0 11.0 0.00 0.00 0.00 71 1016.5
20260901015003 82 297 4.0 11.0 0.00 0.00 0.00 71 1016.5
20260901014903 82 296 4.0 10.0 0.00 0.00 0.00 71 1016.5
20260901014803 82 295 4.0 10.0 0.00 0.00 0.00 71 1016.5
20260901014703 82 295 4.0 10.0 0.00 0.00 0.00 71 1016.6
20260901014603 82 295 4.0 10.0 0.00 0.00 0.00 71 1016.5
20260901014503 82 294 4.0 10.0 0.00 0.00 0.00 71 1016.5
20260901014403 82 296 4.0 13.0 0.00 0.00 0.00 71 1016.5
20260901014303 82 295 4.0 13.0 0.00 0.00 0.00 71 1016.5
20260901014203 82 295 4.0 13.0 0.00 0.00 0.00 71 1016.6
20260901014103 82 296 4.0 13.0 0.00 0.00 0.00 71 1016.5
20260901014003 82 297 4.0 13.0 0.00 0.00 0.00 71 1016.6
20260901013903 82 295 4.0 13.0 0.00 0.00 0.00 71 1016.6
20260901013803 82 298 4.0 13.0 0.00 0.00 0.00 71 1016.5
20260901013703 82 296 4.0 13.0 0.00 0.00 0.00 71 1016.5
20260901013603 82 296 4.0 13.0 0.00 0.00 0.00 71 1016.4
20260901013503 82 295 5.0 13.0 0.00 0.00 0.00 71 1016.5
20260901013403 82 297 5.0 11.0 0.00 0.00 0.00 71 1016.5
20260901013303 82 297 4.0 11.0 0.00 0.00 0.00 71 1016.5
20260901013203 82 297 4.0 11.0 0.00 0.00 0.00 71 1016.5
20260901013103 82 300 4.0 11.0 0.00 0.00 0.00 71 1016.4
20260901013003 82 299 5.0 11.0 0.00 0.00 0.00 71 1016.5
20260901012903 82 301 4.0 11.0 0.00 0.00 0.00 71 1016.4
20260901012803 82 299 4.0 12.0 0.00 0.00 0.00 71 1016.5
20260901012703 82 301 4.0 12.0 0.00 0.00 0.00 71 1016.4
20260901012603 82 300 4.0 12.0 0.00 0.00 0.00 71 1016.4
20260901012503 82 302 4.0 12.0 0.00 0.00 0.00 71 1016.4
20260901012403 82 300 4.0 12.0 0.00 0.00 0.00 72 1016.4
20260901012306 82 301 4.0 12.0 0.00 0.00 0.00 72 1016.4
20260901012203 82 301 4.0 15.0 0.00 0.00 0.00 72 1016.4
20260901012103 82 300 4.0 15.0 0.00 0.00 0.00 72 1016.4
20260901012003 82 300 4.0 15.0 0.00 0.00 0.00 72 1016.4
20260901011903 82 300 4.0 15.0 0.00 0.00 0.00 72 1016.4
20260901011803 82 301 4.0 15.0 0.00 0.00 0.00 72 1016.4
20260901011703 82 302 4.0 15.0 0.00 0.00 0.00 72 1016.4
20260901011603 82 304 4.0 15.0 0.00 0.00 0.00 72 1016.4
20260901011503 82 304 4.0 15.0 0.00 0.00 0.00 72 1016.4
20260901011404 82 304 4.0 15.0 0.00 0.00 0.00 72 1016.3
20260901011304 82 303 4.0 15.0 0.00 0.00 0.00 72 1016.3
20260901011204 82 304 3.0 10.0 0.00 0.00 0.00 72 1016.3
20260901011104 82 303 3.0 10.0 0.00 0.00 0.00 72 1016.3
20260901011004 82 304 3.0 10.0 0.00 0.00 0.00 72 1016.3
20260901010904 82 304 3.0 10.0 0.00 0.00 0.00 72 1016.2
20260901010804 82 303 3.0 10.0 0.00 0.00 0.00 72 1016.3
20260901010704 82 299 3.0 10.0 0.00 0.00 0.00 72 1016.3
20260901010604 82 300 4.0 11.0 0.00 0.00 0.00 72 1016.3
20260901010504 82 300 4.0 11.0 0.00 0.00 0.00 72 1016.3
20260901010404 82 300 4.0 11.0 0.00 0.00 0.00 72 1016.3
20260901010304 82 301 5.0 11.0 0.00 0.00 0.00 72 1016.3
20260901010204 82 300 5.0 11.0 0.00 0.00 0.00 72 1016.2
20260901010104 82 298 4.0 11.0 0.00 0.00 0.00 72 1016.3
20260901010004 82 298 4.0 11.0 0.00 0.00 0.00 72 1016.3
20260901005904 82 299 4.0 11.0 0.00 0.00 0.00 72 1016.3
20260901005804 82 299 4.0 11.0 0.00 0.00 0.00 72 1016.2
20260901005704 82 302 4.0 11.0 0.00 0.00 0.00 72 1016.2
20260901005604 82 301 4.0 11.0 0.00 0.00 0.00 72 1016.2
20260901005504 82 302 3.0 11.0 0.00 0.00 0.00 72 1016.3
20260901005404 82 303 3.0 11.0 0.00 0.00 0.00 72 1016.2
20260901005306 82 301 3.0 11.0 0.00 0.00 0.00 72 1016.1
20260901005204 82 300 3.0 11.0 0.00 0.00 0.00 72 1016.2
20260901005104 82 301 3.0 11.0 0.00 0.00 0.00 72 1016.3
20260901005004 82 301 3.0 9.0 0.00 0.00 0.00 72 1016.3
20260901004904 82 301 3.0 9.0 0.00 0.00 0.00 71 1016.4
20260901004804 82 300 3.0 9.0 0.00 0.00 0.00 71 1016.3
20260901004704 82 298 3.0 9.0 0.00 0.00 0.00 71 1016.3
20260901004604 82 296 3.0 9.0 0.00 0.00 0.00 71 1016.3
20260901004504 82 297 3.0 8.0 0.00 0.00 0.00 71 1016.3
20260901004404 82 297 4.0 11.0 0.00 0.00 0.00 71 1016.3
20260901004304 82 296 4.0 11.0 0.00 0.00 0.00 71 1016.4
20260901004204 82 296 4.0 11.0 0.00 0.00 0.00 71 1016.4
20260901004104 82 297 3.0 11.0 0.00 0.00 0.00 71 1016.4
20260901004004 82 296 4.0 11.0 0.00 0.00 0.00 71 1016.3
20260901003904 82 295 4.0 11.0 0.00 0.00 0.00 71 1016.4
20260901003804 82 295 4.0 11.0 0.00 0.00 0.00 71 1016.3
20260901003704 82 296 4.0 11.0 0.00 0.00 0.00 71 1016.3
20260901003604 82 295 3.0 11.0 0.00 0.00 0.00 71 1016.3
20260901003504 82 295 4.0 11.0 0.00 0.00 0.00 70 1016.3
20260901003404 82 295 3.0 9.0 0.00 0.00 0.00 70 1016.2
20260901003304 82 296 3.0 9.0 0.00 0.00 0.00 70 1016.3
20260901003204 82 295 3.0 9.0 0.00 0.00 0.00 70 1016.3
20260901003104 82 296 3.0 9.0 0.00 0.00 0.00 70 1016.3
20260901003004 82 296 3.0 9.0 0.00 0.00 0.00 70 1016.3
20260901002904 82 296 3.0 7.0 0.00 0.00 0.00 70 1016.3
20260901002804 82 297 3.0 7.0 0.00 0.00 0.00 70 1016.3
20260901002703 82 295 3.0 7.0 0.00 0.00 0.00 70 1016.3
20260901002603 82 295 3.0 7.0 0.00 0.00 0.00 70 1016.2
20260901002504 82 295 3.0 7.0 0.00 0.00 0.00 70 1016.2
20260901002403 82 296 3.0 7.0 0.00 0.00 0.00 70 1016.2
20260901002305 82 294 3.0 7.0 0.00 0.00 0.00 70 1016.2
20260901002204 82 295 3.0 7.0 0.00 0.00 0.00 71 1016.2
20260901002103 82 293 3.0 7.0 0.00 0.00 0.00 71 1016.2
20260901002004 82 291 2.0 7.0 0.00 0.00 0.00 71 1016.2
20260901001903 82 292 3.0 7.0 0.00 0.00 0.00 71 1016.2
20260901001804 82 292 3.0 7.0 0.00 0.00 0.00 71 1016.2
20260901001703 82 292 3.0 7.0 0.00 0.00 0.00 71 1016.2
20260901001604 82 292 3.0 6.0 0.00 0.00 0.00 71 1016.2
20260901001504 82 292 3.0 6.0 0.00 0.00 0.00 71 1016.2
20260901001403 82 292 2.0 6.0 0.00 0.00 0.00 71 1016.2
20260901001303 82 296 2.0 9.0 0.00 0.00 0.00 71 1016.3
20260901001203 82 298 2.0 9.0 0.00 0.00 0.00 71 1016.3
20260901001104 82 298 2.0 9.0 0.00 0.00 0.00 70 1016.2
20260901001003 82 300 2.0 9.0 0.00 0.00 0.00 70 1016.2
20260901000903 82 300 2.0 9.0 0.00 0.00 0.00 70 1016.2
20260901000803 82 300 2.0 9.0 0.00 0.00 0.00 70 1016.2
20260901000703 82 301 2.0 9.0 0.00 0.00 0.00 70 1016.2
20260901000603 82 304 3.0 9.0 0.00 0.00 0.00 70 1016.1
20260901000503 82 303 3.0 9.0 0.00 0.00 0.00 70 1016.2
20260901000405 82 301 3.0 9.0 0.00 0.00 0.00 70 1016.2
20260901000303 82 299 4.0 9.0 0.00 0.00 0.00 70 1016.2
20260901000204 82 298 4.0 9.0 0.00 0.00 0.00 70 1016.2
20260901000103 82 299 4.0 9.0 0.00 0.00 0.00 70 1016.1
20260901000003 82 299 4.0 9.0 0.00 0.00 0.00 70 1016.1
20260831235903 82 298 4.0 9.0 0.00 0.00 0.00 70 1016.2
20260831235803 82 298 5.0 9.0 0.00 0.00 0.00 71 1016.2
20260831235703 82 299 5.0 9.0 0.00 0.00 0.00 71 1016.2
20260831235603 82 297 5.0 9.0 0.00 0.00 0.00 71 1016.2
20260831235504 82 297 5.0 9.0 0.00 0.00 0.00 71 1016.2
20260831235403 82 297 4.0 9.0 0.00 0.00 0.00 71 1016.2
20260831235306 82 297 4.0 9.0 0.00 0.00 0.00 71 1016.3
20260831235203 82 297 4.0 9.0 0.00 0.00 0.00 71 1016.2
20260831235103 82 297 4.0 9.0 0.00 0.00 0.00 71 1016.2
20260831235003 82 296 4.0 9.0 0.00 0.00 0.00 71 1016.2
20260831234903 82 297 4.0 9.0 0.00 0.00 0.00 72 1016.2
20260831234803 82 297 4.0 9.0 0.00 0.00 0.00 71 1016.2
20260831234703 82 295 4.0 7.0 0.00 0.00 0.00 72 1016.2
20260831234603 82 296 4.0 7.0 0.00 0.00 0.00 72 1016.2
20260831234503 82 296 4.0 7.0 0.00 0.00 0.00 72 1016.1
20260831234403 82 296 4.0 7.0 0.00 0.00 0.00 72 1016.0
20260831234303 82 296 4.0 7.0 0.00 0.00 0.00 72 1016.1
20260831234203 82 296 4.0 7.0 0.00 0.00 0.00 71 1016.2
20260831234103 82 296 4.0 9.0 0.00 0.00 0.00 72 1016.2
20260831234003 82 296 4.0 9.0 0.00 0.00 0.00 71 1016.1
20260831233903 82 296 5.0 10.0 0.00 0.00 0.00 71 1016.1
20260831233803 82 297 5.0 10.0 0.00 0.00 0.00 71 1016.1
20260831233703 82 299 5.0 10.0 0.00 0.00 0.00 71 1016.1
20260831233603 82 299 5.0 10.0 0.00 0.00 0.00 71 1016.2
20260831233503 82 300 5.0 10.0 0.00 0.00 0.00 71 1016.2
20260831233403 82 300 5.0 10.0 0.00 0.00 0.00 71 1016.3
20260831233303 82 300 5.0 10.0 0.00 0.00 0.00 71 1016.2
20260831233203 82 300 5.0 10.0 0.00 0.00 0.00 71 1016.3
20260831233103 82 300 5.0 10.0 0.00 0.00 0.00 71 1016.2
20260831233003 82 300 5.0 10.0 0.00 0.00 0.00 71 1016.2
20260831232903 82 300 5.0 9.0 0.00 0.00 0.00 71 1016.3
20260831232803 82 299 5.0 8.0 0.00 0.00 0.00 71 1016.3
20260831232703 82 298 5.0 8.0 0.00 0.00 0.00 71 1016.2
20260831232603 82 297 4.0 8.0 0.00 0.00 0.00 71 1016.2
20260831232503 82 296 4.0 8.0 0.00 0.00 0.00 71 1016.2
20260831232403 82 297 4.0 8.0 0.00 0.00 0.00 70 1016.3
20260831232305 83 299 5.0 9.0 0.00 0.00 0.00 70 1016.3
20260831232203 82 299 5.0 9.0 0.00 0.00 0.00 70 1016.2
20260831232103 82 300 5.0 9.0 0.00 0.00 0.00 70 1016.2
20260831232003 82 300 5.0 9.0 0.00 0.00 0.00 70 1016.2
20260831231903 83 301 5.0 9.0 0.00 0.00 0.00 70 1016.2
20260831231803 83 302 5.0 9.0 0.00 0.00 0.00 70 1016.3
20260831231703 82 303 5.0 9.0 0.00 0.00 0.00 70 1016.2
20260831231603 83 303 5.0 9.0 0.00 0.00 0.00 70 1016.2
20260831231504 83 303 6.0 9.0 0.00 0.00 0.00 70 1016.2
20260831231403 83 303 6.0 9.0 0.00 0.00 0.00 70 1016.3
20260831231304 83 301 5.0 9.0 0.00 0.00 0.00 70 1016.3
20260831231203 83 300 5.0 7.0 0.00 0.00 0.00 69 1016.2
20260831231004 83 299 4.0 9.0 0.00 0.00 0.00 69 1016.3
20260831230904 83 299 4.0 9.0 0.00 0.00 0.00 69 1016.3
20260831230804 83 300 4.0 9.0 0.00 0.00 0.00 69 1016.3
20260831230704 83 301 4.0 9.0 0.00 0.00 0.00 70 1016.4
20260831230604 83 300 4.0 9.0 0.00 0.00 0.00 70 1016.5
20260831230504 83 298 4.0 9.0 0.00 0.00 0.00 69 1016.4
20260831230403 83 298 4.0 9.0 0.00 0.00 0.00 70 1016.4
20260831230304 83 299 4.0 9.0 0.00 0.00 0.00 70 1016.4
20260831230203 83 300 4.0 8.0 0.00 0.00 0.00 70 1016.4
20260831230103 83 299 4.0 8.0 0.00 0.00 0.00 70 1016.4
20260831230004 83 299 5.0 9.0 0.00 0.00 0.00 69 1016.4
20260831225903 83 299 4.0 9.0 0.00 0.00 0.00 70 1016.4
20260831225803 83 300 4.0 9.0 0.00 0.00 0.00 69 1016.4
20260831225703 83 299 5.0 9.0 0.00 0.00 0.00 69 1016.4
20260831225603 83 301 5.0 9.0 0.00 0.00 0.00 70 1016.4
20260831225503 83 302 5.0 9.0 0.00 0.00 0.00 69 1016.4
20260831225403 83 301 5.0 9.0 0.00 0.00 0.00 70 1016.4
20260831225306 83 302 5.0 9.0 0.00 0.00 0.00 70 1016.4
20260831225203 83 301 5.0 9.0 0.00 0.00 0.00 70 1016.4
20260831225103 83 301 5.0 9.0 0.00 0.00 0.00 70 1016.4
20260831225003 83 302 5.0 9.0 0.00 0.00 0.00 70 1016.4
20260831224903 83 302 5.0 9.0 0.00 0.00 0.00 70 1016.4
20260831224803 83 301 5.0 9.0 0.00 0.00 0.00 70 1016.4
20260831224703 83 301 4.0 9.0 0.00 0.00 0.00 70 1016.4
20260831224603 83 300 4.0 9.0 0.00 0.00 0.00 69 1016.4
20260831224503 83 299 4.0 9.0 0.00 0.00 0.00 69 1016.4
20260831224403 83 300 4.0 8.0 0.00 0.00 0.00 69 1016.3
20260831224303 83 301 4.0 8.0 0.00 0.00 0.00 69 1016.4
20260831224203 83 301 4.0 8.0 0.00 0.00 0.00 69 1016.4
20260831224103 83 301 4.0 7.0 0.00 0.00 0.00 70 1016.4
20260831224003 83 300 4.0 7.0 0.00 0.00 0.00 70 1016.5
20260831223903 83 299 4.0 7.0 0.00 0.00 0.00 69 1016.4
20260831223803 83 300 5.0 8.0 0.00 0.00 0.00 70 1016.4
20260831223703 83 301 5.0 8.0 0.00 0.00 0.00 69 1016.4
20260831223603 83 302 5.0 8.0 0.00 0.00 0.00 70 1016.5
20260831223503 83 301 5.0 8.0 0.00 0.00 0.00 69 1016.5
20260831223403 83 301 5.0 8.0 0.00 0.00 0.00 69 1016.5
20260831223303 83 300 4.0 8.0 0.00 0.00 0.00 70 1016.5
20260831223203 83 300 4.0 8.0 0.00 0.00 0.00 69 1016.5
20260831223103 83 299 4.0 8.0 0.00 0.00 0.00 69 1016.6
20260831223003 83 300 4.0 8.0 0.00 0.00 0.00 69 1016.5
20260831222903 83 302 4.0 8.0 0.00 0.00 0.00 70 1016.5
20260831222803 83 301 4.0 8.0 0.00 0.00 0.00 69 1016.5
20260831222703 83 298 3.0 8.0 0.00 0.00 0.00 69 1016.5
20260831222603 83 297 3.0 7.0 0.00 0.00 0.00 69 1016.5
20260831222503 83 299 3.0 7.0 0.00 0.00 0.00 69 1016.5
20260831222403 83 298 3.0 7.0 0.00 0.00 0.00 69 1016.5
20260831222306 83 298 3.0 7.0 0.00 0.00 0.00 69 1016.5
20260831222203 83 299 3.0 7.0 0.00 0.00 0.00 69 1016.5
20260831222103 83 300 3.0 7.0 0.00 0.00 0.00 69 1016.5
20260831222003 83 300 3.0 7.0 0.00 0.00 0.00 69 1016.5
20260831221903 83 301 4.0 7.0 0.00 0.00 0.00 69 1016.5
20260831221803 83 300 4.0 9.0 0.00 0.00 0.00 69 1016.5
20260831221703 83 302 4.0 9.0 0.00 0.00 0.00 69 1016.5
20260831221603 83 302 3.0 9.0 0.00 0.00 0.00 69 1016.6
20260831221503 83 301 3.0 9.0 0.00 0.00 0.00 69 1016.5
20260831221403 83 301 3.0 9.0 0.00 0.00 0.00 69 1016.4
20260831221303 83 301 3.0 9.0 0.00 0.00 0.00 69 1016.5
20260831221203 83 299 3.0 9.0 0.00 0.00 0.00 69 1016.5
20260831221103 83 299 3.0 9.0 0.00 0.00 0.00 70 1016.5
20260831221003 83 299 4.0 9.0 0.00 0.00 0.00 69 1016.5
20260831220903 83 299 3.0 9.0 0.00 0.00 0.00 69 1016.5
20260831220803 83 301 3.0 7.0 0.00 0.00 0.00 69 1016.6
20260831220703 83 299 3.0 7.0 0.00 0.00 0.00 69 1016.6
20260831220603 83 301 3.0 7.0 0.00 0.00 0.00 69 1016.7
20260831220503 83 299 4.0 10.0 0.00 0.00 0.00 69 1016.6
20260831220403 83 301 4.0 10.0 0.00 0.00 0.00 69 1016.6
20260831220303 83 300 4.0 10.0 0.00 0.00 0.00 69 1016.7
20260831220203 83 300 4.0 10.0 0.00 0.00 0.00 69 1016.7
20260831220103 83 301 4.0 10.0 0.00 0.00 0.00 69 1016.7
20260831215903 83 301 4.0 10.0 0.00 0.00 0.00 69 1016.6
20260831215803 83 299 4.0 10.0 0.00 0.00 0.00 69 1016.6
20260831215703 83 301 4.0 10.0 0.00 0.00 0.00 69 1016.6
20260831215603 83 300 4.0 10.0 0.00 0.00 0.00 69 1016.7
20260831215503 83 301 4.0 8.0 0.00 0.00 0.00 69 1016.7
20260831215403 83 302 4.0 8.0 0.00 0.00 0.00 69 1016.7
20260831215306 83 300 4.0 8.0 0.00 0.00 0.00 69 1016.6
20260831215203 83 300 4.0 11.0 0.00 0.00 0.00 69 1016.7
20260831215103 83 301 4.0 11.0 0.00 0.00 0.00 69 1016.7
20260831215003 83 300 4.0 11.0 0.00 0.00 0.00 69 1016.7
20260831214903 83 300 4.0 11.0 0.00 0.00 0.00 69 1016.6
20260831214803 83 301 5.0 11.0 0.00 0.00 0.00 69 1016.7
20260831214703 83 298 5.0 11.0 0.00 0.00 0.00 69 1016.7
20260831214603 83 299 5.0 11.0 0.00 0.00 0.00 69 1016.6
20260831214503 83 298 5.0 11.0 0.00 0.00 0.00 69 1016.6
20260831214403 83 297 5.0 11.0 0.00 0.00 0.00 69 1016.5
20260831214303 83 299 6.0 11.0 0.00 0.00 0.00 70 1016.6
20260831214203 83 299 5.0 11.0 0.00 0.00 0.00 70 1016.6
20260831214103 83 299 6.0 11.0 0.00 0.00 0.00 70 1016.5
20260831214003 83 299 5.0 11.0 0.00 0.00 0.00 70 1016.5
20260831213903 83 298 5.0 11.0 0.00 0.00 0.00 70 1016.6
20260831213803 83 297 5.0 9.0 0.00 0.00 0.00 69 1016.7
20260831213703 83 298 5.0 9.0 0.00 0.00 0.00 70 1016.7
20260831213603 83 299 5.0 8.0 0.00 0.00 0.00 69 1016.8
20260831213503 83 299 4.0 8.0 0.00 0.00 0.00 69 1016.8
20260831213403 83 300 4.0 8.0 0.00 0.00 0.00 69 1016.8
20260831213303 83 299 4.0 7.0 0.00 0.00 0.00 69 1016.8
20260831213204 83 298 4.0 7.0 0.00 0.00 0.00 69 1016.7
20260831213104 83 298 4.0 8.0 0.00 0.00 0.00 69 1016.7
20260831213004 83 298 4.0 8.0 0.00 0.00 0.00 69 1016.8
20260831212904 83 298 4.0 8.0 0.00 0.00 0.00 69 1016.8
20260831212804 83 298 4.0 8.0 0.00 0.00 0.00 69 1016.8
20260831212704 83 297 4.0 8.0 0.00 0.00 0.00 69 1016.8
20260831212604 83 296 4.0 8.0 0.00 0.00 0.00 69 1016.7
20260831212504 83 295 3.0 8.0 0.00 0.00 0.00 69 1016.7
20260831212404 83 296 3.0 8.0 0.00 0.00 0.00 69 1016.8
20260831212306 83 295 3.0 8.0 0.00 0.00 0.00 69 1016.7
20260831212204 83 296 3.0 8.0 0.00 0.00 0.00 69 1016.7
20260831212104 83 295 3.0 8.0 0.00 0.00 0.00 69 1016.7
20260831212004 83 295 3.0 10.0 0.00 0.00 0.00 69 1016.6
20260831211904 83 295 4.0 10.0 0.00 0.00 0.00 69 1016.7
20260831211804 83 294 4.0 10.0 0.00 0.00 0.00 69 1016.7
20260831211704 83 294 4.0 10.0 0.00 0.00 0.00 69 1016.7
20260831211604 83 295 4.0 10.0 0.00 0.00 0.00 69 1016.7
20260831211504 83 296 4.0 10.0 0.00 0.00 0.00 69 1016.6
20260831211404 83 296 5.0 10.0 0.00 0.00 0.00 69 1016.7
20260831211304 83 297 5.0 10.0 0.00 0.00 0.00 69 1016.6
20260831211204 83 296 5.0 10.0 0.00 0.00 0.00 69 1016.6
20260831211104 83 296 4.0 10.0 0.00 0.00 0.00 69 1016.6
20260831211004 83 297 4.0 9.0 0.00 0.00 0.00 69 1016.6
20260831210904 83 297 4.0 9.0 0.00 0.00 0.00 69 1016.6
20260831210804 83 299 4.0 11.0 0.00 0.00 0.00 69 1016.6
20260831210704 83 299 4.0 11.0 0.00 0.00 0.00 69 1016.6
20260831210604 83 299 5.0 11.0 0.00 0.00 0.00 69 1016.5
20260831210504 83 298 5.0 11.0 0.00 0.00 0.00 69 1016.5
20260831210404 83 298 5.0 11.0 0.00 0.00 0.00 69 1016.5
20260831210304 83 297 5.0 11.0 0.00 0.00 0.00 69 1016.6
20260831210204 83 297 5.0 11.0 0.00 0.00 0.00 69 1016.6
20260831210104 83 297 5.0 11.0 0.00 0.00 0.00 70 1016.5
20260831210004 83 297 5.0 11.0 0.00 0.00 0.00 70 1016.5
20260831205904 83 298 5.0 11.0 0.00 0.00 0.00 70 1016.6
20260831205804 83 297 5.0 11.0 0.00 0.00 0.00 70 1016.6
20260831205704 83 297 5.0 11.0 0.00 0.00 0.00 70 1016.5
20260831205604 83 296 5.0 11.0 0.00 0.00 0.00 70 1016.5
20260831205504 83 296 5.0 11.0 0.00 0.00 0.00 70 1016.5
20260831205404 83 295 5.0 9.0 0.00 0.00 0.00 70 1016.5
20260831205305 83 294 5.0 10.0 0.00 0.00 0.00 70 1016.5
20260831205204 83 295 5.0 10.0 0.00 0.00 0.00 70 1016.5
20260831205104 83 294 4.0 10.0 0.00 0.00 0.00 70 1016.5
20260831205004 83 294 5.0 10.0 0.00 0.00 0.00 70 1016.5
20260831204904 83 294 5.0 11.0 0.00 0.00 0.00 70 1016.5
20260831204804 83 294 5.0 11.0 0.00 0.00 0.00 70 1016.5
20260831204704 83 294 5.0 11.0 0.00 0.00 0.00 70 1016.6
20260831204604 83 294 5.0 11.0 0.00 0.00 0.00 70 1016.5
20260831204504 83 295 5.0 11.0 0.00 0.00 0.00 70 1016.5
20260831204403 83 296 5.0 11.0 0.00 0.00 0.00 70 1016.6
20260831204303 83 296 5.0 11.0 0.00 0.00 0.00 70 1016.5
20260831204203 83 295 5.0 13.0 0.00 0.00 0.00 70 1016.5
20260831204103 83 295 5.0 13.0 0.00 0.00 0.00 70 1016.5
20260831204003 83 296 5.0 13.0 0.00 0.00 0.00 70 1016.5
20260831203903 83 297 5.0 13.0 0.00 0.00 0.00 70 1016.4
20260831203803 83 299 5.0 13.0 0.00 0.00 0.00 70 1016.4
20260831203703 83 299 5.0 13.0 0.00 0.00 0.00 70 1016.4
20260831203603 83 299 5.0 13.0 0.00 0.00 0.00 70 1016.4
20260831203503 83 300 6.0 13.0 0.00 0.00 0.00 70 1016.4
20260831203403 83 301 5.0 13.0 0.00 0.00 0.00 70 1016.4
20260831203303 83 302 5.0 13.0 0.00 0.00 0.00 70 1016.4
20260831203203 83 304 5.0 10.0 0.00 0.00 0.00 70 1016.4
20260831203103 83 305 5.0 10.0 0.00 0.00 0.00 70 1016.4
20260831203003 83 305 5.0 10.0 0.00 0.00 0.00 70 1016.4
20260831202903 83 303 5.0 10.0 0.00 0.00 0.00 70 1016.4
20260831202803 83 304 5.0 10.0 0.00 0.00 0.00 70 1016.4
20260831202703 83 303 4.0 10.0 0.00 0.00 0.00 70 1016.3
20260831202603 83 302 4.0 10.0 0.00 0.00 0.00 69 1016.3
20260831202503 83 302 4.0 8.0 0.00 0.00 0.00 69 1016.2
20260831202403 84 302 4.0 8.0 0.00 0.00 0.00 69 1016.3
20260831202306 84 300 4.0 8.0 0.00 0.00 0.00 69 1016.3
20260831202203 84 299 4.0 8.0 0.00 0.00 0.00 69 1016.3
20260831202103 84 298 4.0 8.0 0.00 0.00 0.00 70 1016.2
20260831202003 84 298 3.0 8.0 0.00 0.00 0.00 70 1016.3
20260831201903 84 297 3.0 9.0 0.00 0.00 0.00 69 1016.2
20260831201803 84 295 3.0 9.0 0.00 0.00 0.00 70 1016.2
20260831201703 84 295 4.0 9.0 0.00 0.00 0.00 70 1016.3
20260831201603 83 295 4.0 9.0 0.00 0.00 0.00 70 1016.2
20260831201505 84 295 4.0 9.0 0.00 0.00 0.00 70 1016.4
20260831201403 83 294 4.0 9.0 0.00 0.00 0.00 70 1016.4
20260831201303 83 294 4.0 9.0 0.00 0.00 0.00 70 1016.4
20260831201203 83 295 4.0 9.0 0.00 0.00 0.00 70 1016.4
20260831201103 83 294 4.0 9.0 0.00 0.00 0.00 70 1016.3
20260831201003 84 294 4.0 9.0 0.00 0.00 0.00 70 1016.4
20260831200903 84 294 4.0 9.0 0.00 0.00 0.00 70 1016.3
20260831200803 84 296 4.0 9.0 0.00 0.00 0.00 70 1016.4
20260831200703 83 298 4.0 9.0 0.00 0.00 0.00 70 1016.4
20260831200603 84 297 4.0 9.0 0.00 0.00 0.00 70 1016.3
20260831200503 84 297 4.0 9.0 0.00 0.00 0.00 70 1016.4
20260831200403 84 300 4.0 9.0 0.00 0.00 0.00 70 1016.3
20260831200303 84 300 4.0 8.0 0.00 0.00 0.00 70 1016.3
20260831200203 84 298 4.0 8.0 0.00 0.00 0.00 70 1016.4
20260831200103 84 299 4.0 8.0 0.00 0.00 0.00 70 1016.4
20260831200003 84 298 4.0 8.0 0.00 0.00 0.00 70 1016.3
20260831195903 84 297 4.0 8.0 0.00 0.00 0.00 70 1016.3
20260831195803 84 296 4.0 8.0 0.00 0.00 0.00 70 1016.3
20260831195703 84 296 4.0 8.0 0.00 0.00 0.00 70 1016.2
20260831195603 84 296 4.0 8.0 0.00 0.00 0.00 70 1016.3
20260831195503 84 295 4.0 8.0 0.00 0.00 0.00 70 1016.2
20260831195403 84 294 4.0 8.0 0.00 0.00 0.00 70 1016.2
20260831195306 84 294 3.0 8.0 0.00 0.00 0.00 70 1016.2
20260831195203 84 295 3.0 8.0 0.00 0.00 0.00 70 1016.2
20260831195103 84 295 3.0 8.0 0.00 0.00 0.00 70 1016.1
20260831195003 84 296 3.0 8.0 0.00 0.00 0.00 70 1016.1
20260831194903 84 296 3.0 8.0 0.00 0.00 0.00 70 1016.1
20260831194803 84 298 3.0 8.0 0.00 0.00 0.00 70 1016.1
20260831194703 84 298 3.0 8.0 0.00 0.00 0.00 70 1016.1
20260831194603 84 298 3.0 6.0 0.00 0.00 0.00 70 1016.2
20260831194503 84 299 3.0 6.0 0.00 0.00 0.00 70 1016.2
20260831194403 84 300 3.0 6.0 0.00 0.00 0.00 70 1016.2
20260831194303 84 301 3.0 6.0 0.00 0.00 0.00 70 1016.2
20260831194203 84 301 4.0 7.0 0.00 0.00 0.00 70 1016.2
20260831194103 84 301 4.0 7.0 0.00 0.00 0.00 70 1016.2
20260831194003 84 300 4.0 7.0 0.00 0.00 0.00 70 1016.1
20260831193903 84 299 4.0 7.0 0.00 0.00 0.00 70 1016.2
20260831193803 84 299 4.0 7.0 0.00 0.00 0.00 70 1016.0
20260831193703 84 299 4.0 7.0 0.00 0.00 0.00 70 1016.1
20260831193603 84 300 4.0 7.0 0.00 0.00 0.00 70 1016.1
20260831193503 84 299 4.0 7.0 0.00 0.00 0.00 70 1016.1
20260831193403 84 298 3.0 7.0 0.00 0.00 0.00 70 1016.1
20260831193303 84 297 3.0 7.0 0.00 0.00 0.00 70 1016.1
20260831193203 84 297 3.0 6.0 0.00 0.00 0.00 70 1016.1
20260831193103 84 296 3.0 6.0 0.00 0.00 0.00 69 1016.1
20260831193003 84 297 2.0 6.0 0.00 0.00 0.00 69 1016.0
20260831192903 84 299 2.0 6.0 0.00 0.00 0.00 70 1016.1
20260831192803 84 297 2.0 6.0 0.00 0.00 0.00 70 1016.1
20260831192703 84 296 2.0 6.0 0.00 0.00 0.00 69 1016.0
20260831192603 84 294 2.0 6.0 0.00 0.00 0.00 70 1016.1
20260831192503 84 294 2.0 6.0 0.00 0.00 0.00 70 1016.0
20260831192403 84 294 2.0 6.0 0.00 0.00 0.00 70 1016.0
20260831192305 84 295 2.0 6.0 0.00 0.00 0.00 70 1016.1
20260831192203 84 294 2.0 6.0 0.00 0.00 0.00 70 1016.0
20260831192103 84 294 2.0 6.0 0.00 0.00 0.00 70 1016.0
20260831192003 84 294 2.0 6.0 0.00 0.00 0.00 70 1016.0
20260831191903 84 293 2.0 6.0 0.00 0.00 0.00 70 1016.0
20260831191803 84 295 2.0 6.0 0.00 0.00 0.00 70 1016.1
20260831191703 84 296 2.0 6.0 0.00 0.00 0.00 70 1016.1
20260831191603 84 298 2.0 6.0 0.00 0.00 0.00 70 1015.9
20260831191503 84 298 2.0 6.0 0.00 0.00 0.00 70 1016.0
20260831191403 84 297 2.0 6.0 0.00 0.00 0.00 70 1016.1
20260831191303 84 297 2.0 6.0 0.00 0.00 0.00 70 1016.0
20260831191204 84 297 2.0 6.0 0.00 0.00 0.00 70 1016.0
20260831191104 84 296 3.0 8.0 0.00 0.00 0.00 70 1015.9
20260831191004 84 298 3.0 8.0 0.00 0.00 0.00 70 1015.9
20260831190904 84 299 3.0 8.0 0.00 0.00 0.00 70 1016.0
20260831190804 84 298 3.0 8.0 0.00 0.00 0.00 70 1016.0
20260831190704 84 298 3.0 8.0 0.00 0.00 0.00 70 1016.0
20260831190604 84 298 3.0 8.0 0.00 0.00 0.00 70 1016.0
20260831190504 84 298 3.0 8.0 0.00 0.00 0.00 70 1016.0
20260831190404 84 298 3.0 8.0 0.00 0.00 0.00 70 1015.9
20260831190304 84 299 3.0 8.0 0.00 0.00 0.00 70 1015.9
20260831190204 84 299 3.0 8.0 0.00 0.00 0.00 70 1016.0
20260831190104 84 299 3.0 7.0 0.00 0.00 0.00 69 1016.0
20260831190004 84 298 3.0 7.0 0.00 0.00 0.00 70 1016.0
20260831185904 84 298 3.0 7.0 0.00 0.00 0.00 70 1015.9
20260831185804 84 298 3.0 7.0 0.00 0.00 0.00 70 1016.0
20260831185704 84 298 2.0 7.0 0.00 0.00 0.00 70 1016.2
20260831185604 84 298 2.0 7.0 0.00 0.00 0.00 69 1016.1
20260831185504 84 299 2.0 7.0 0.00 0.00 0.00 69 1016.1
20260831185404 84 298 2.0 7.0 0.00 0.00 0.00 69 1016.2
20260831185306 84 299 3.0 7.0 0.00 0.00 0.00 69 1016.1
20260831185204 84 299 3.0 7.0 0.00 0.00 0.00 69 1016.2
20260831185104 84 299 2.0 7.0 0.00 0.00 0.00 69 1016.2
20260831185004 84 299 2.0 7.0 0.00 0.00 0.00 69 1016.2
20260831184904 84 298 2.0 7.0 0.00 0.00 0.00 69 1016.2
20260831184804 84 298 3.0 7.0 0.00 0.00 0.00 69 1016.2
20260831184704 84 297 3.0 7.0 0.00 0.00 0.00 69 1016.1
20260831184604 84 297 2.0 7.0 0.00 0.00 0.00 69 1016.2
20260831184504 84 296 2.0 7.0 0.00 0.00 0.00 69 1016.2
20260831184404 84 300 2.0 7.0 0.00 0.00 0.00 69 1016.3
20260831184304 84 300 2.0 7.0 0.00 0.00 0.00 69 1016.2
20260831184204 84 300 2.0 7.0 0.00 0.00 0.00 69 1016.1
20260831184104 84 298 3.0 7.0 0.00 0.00 0.00 69 1016.1
20260831184004 84 300 3.0 7.0 0.00 0.00 0.00 69 1016.1
20260831183904 84 299 3.0 7.0 0.00 0.00 0.00 69 1016.1
20260831183804 84 299 3.0 7.0 0.00 0.00 0.00 69 1016.1
20260831183704 84 299 3.0 7.0 0.00 0.00 0.00 69 1016.0
20260831183604 84 299 4.0 7.0 0.00 0.00 0.00 69 1015.9
20260831183504 84 300 4.0 7.0 0.00 0.00 0.00 69 1016.0
20260831183404 84 298 4.0 7.0 0.00 0.00 0.00 69 1016.0
20260831183304 84 297 4.0 7.0 0.00 0.00 0.00 69 1016.0
20260831183204 84 297 4.0 7.0 0.00 0.00 0.00 69 1016.0
20260831183104 84 298 4.0 8.0 0.00 0.00 0.00 69 1016.0
20260831183004 84 297 4.0 8.0 0.00 0.00 0.00 69 1016.0
20260831182904 84 298 4.0 8.0 0.00 0.00 0.00 69 1015.9
20260831182804 84 299 4.0 8.0 0.00 0.00 0.00 69 1016.0
20260831182704 84 299 4.0 8.0 0.00 0.00 0.00 69 1015.9
20260831182604 84 300 4.0 8.0 0.00 0.00 0.00 69 1015.9
20260831182504 84 299 4.0 8.0 0.00 0.00 0.00 69 1015.8
20260831182404 84 300 4.0 8.0 0.00 0.00 0.00 70 1016.0
20260831182305 84 300 4.0 8.0 0.00 0.00 0.00 69 1015.9
20260831182204 84 300 4.0 8.0 0.00 0.00 0.00 69 1015.9
20260831182104 84 299 4.0 8.0 0.00 0.00 0.00 69 1015.9
20260831182004 84 299 4.0 10.0 0.00 0.00 0.00 69 1015.8
20260831181904 84 299 4.0 10.0 0.00 0.00 0.00 69 1015.8
20260831181804 84 299 4.0 10.0 0.00 0.00 0.00 69 1015.7
20260831181704 84 297 4.0 10.0 0.00 0.00 0.00 69 1015.7
20260831181604 84 298 4.0 10.0 0.00 0.00 0.00 69 1015.6
20260831181504 84 298 4.0 10.0 0.00 0.00 0.00 69 1015.8
20260831181404 85 298 5.0 10.0 0.00 0.00 0.00 69 1015.7
20260831181304 85 298 5.0 10.0 0.00 0.00 0.00 69 1015.7
20260831181204 85 298 5.0 10.0 0.00 0.00 0.00 69 1015.7
20260831181104 85 298 5.0 10.0 0.00 0.00 0.00 69 1015.7
20260831181004 85 299 4.0 8.0 0.00 0.00 0.00 69 1015.6
20260831180904 85 298 4.0 8.0 0.00 0.00 0.00 69 1015.7
20260831180803 85 298 4.0 8.0 0.00 0.00 0.00 69 1015.7
20260831180704 85 299 4.0 8.0 0.00 0.00 0.00 69 1015.7
20260831180604 85 298 4.0 8.0 0.00 0.00 0.00 68 1015.7
20260831180504 85 299 3.0 8.0 0.00 0.00 0.00 68 1015.8
20260831180403 85 299 3.0 8.0 0.00 0.00 0.00 68 1015.7
20260831180303 85 299 3.0 8.0 0.00 0.00 0.00 68 1015.8
20260831180204 85 300 3.0 8.0 0.00 0.00 0.00 68 1015.7
20260831180103 85 300 3.0 8.0 0.00 0.00 0.00 68 1015.7
20260831180004 85 299 3.0 8.0 0.00 0.00 0.00 68 1015.8
20260831175903 85 300 3.0 8.0 0.00 0.00 0.00 68 1015.8
20260831175803 85 300 3.0 8.0 0.00 0.00 0.00 68 1015.7
20260831175703 85 300 4.0 8.0 0.00 0.00 0.00 68 1015.7
20260831175603 85 299 4.0 8.0 0.00 0.00 0.00 68 1015.8
20260831175503 85 298 4.0 8.0 0.00 0.00 0.00 68 1015.8
20260831175403 85 299 4.0 8.0 0.00 0.00 0.00 68 1015.7
20260831175306 85 298 4.0 8.0 0.00 0.00 0.00 68 1015.7
20260831175203 85 297 4.0 8.0 0.00 0.00 0.00 68 1015.6
20260831175103 85 297 4.0 8.0 0.00 0.00 0.00 68 1015.7
20260831175003 85 297 4.0 8.0 0.00 0.00 0.00 68 1015.7
20260831174903 85 295 4.0 10.0 0.00 0.00 0.00 68 1015.7
20260831174803 85 296 4.0 10.0 0.00 0.00 0.00 68 1015.6
20260831174703 85 296 4.0 10.0 0.00 0.00 0.00 68 1015.7
20260831174603 85 295 4.0 14.0 0.00 0.00 0.00 68 1015.7
20260831174503 85 295 4.0 14.0 0.00 0.00 0.00 68 1015.6
20260831174403 85 295 4.0 14.0 0.00 0.00 0.00 68 1015.6
20260831174303 85 295 4.0 14.0 0.00 0.00 0.00 68 1015.5
20260831174203 85 296 4.0 14.0 0.00 0.00 0.00 68 1015.5
20260831174103 85 296 3.0 14.0 0.00 0.00 0.00 68 1015.6
20260831174003 85 295 3.0 14.0 0.00 0.00 0.00 68 1015.6
20260831173903 85 298 3.0 14.0 0.00 0.00 0.00 68 1015.6
20260831173803 85 298 3.0 14.0 0.00 0.00 0.00 68 1015.6
20260831173703 85 297 3.0 14.0 0.00 0.00 0.00 68 1015.6
20260831173603 85 300 3.0 10.0 0.00 0.00 0.00 67 1015.7
20260831173503 85 299 3.0 12.0 0.00 0.00 0.00 67 1015.7
20260831173403 85 298 3.0 12.0 0.00 0.00 0.00 67 1015.7
20260831173303 85 300 4.0 12.0 0.00 0.00 0.00 67 1015.7
20260831173203 85 299 4.0 12.0 0.00 0.00 0.00 67 1015.6
20260831173103 85 299 4.0 12.0 0.00 0.00 0.00 67 1015.7
20260831173004 85 301 4.0 12.0 0.00 0.00 0.00 67 1015.7
20260831172903 85 299 5.0 12.0 0.00 0.00 0.00 67 1015.6
20260831172803 85 300 5.0 12.0 0.00 0.00 0.00 67 1015.6
20260831172703 85 300 5.0 12.0 0.00 0.00 0.00 67 1015.6
20260831172603 85 298 5.0 12.0 0.00 0.00 0.00 67 1015.6
20260831172503 85 299 5.0 11.0 0.00 0.00 0.00 67 1015.5
20260831172403 85 298 5.0 11.0 0.00 0.00 0.00 67 1015.5
20260831172306 86 296 5.0 11.0 0.00 0.00 0.00 67 1015.5
20260831172203 86 297 5.0 11.0 0.00 0.00 0.00 66 1015.5
20260831172103 86 297 5.0 11.0 0.00 0.00 0.00 67 1015.6
20260831172003 86 295 5.0 11.0 0.00 0.00 0.00 67 1015.6
20260831171903 86 295 4.0 11.0 0.00 0.00 0.00 67 1015.6
20260831171803 86 294 4.0 9.0 0.00 0.00 0.00 67 1015.6
20260831171703 86 293 4.0 11.0 0.00 0.00 0.00 67 1015.7
20260831171603 86 295 4.0 11.0 0.00 0.00 0.00 67 1015.8
20260831171503 86 294 4.0 11.0 0.00 0.00 0.00 67 1015.8
20260831171403 86 295 4.0 11.0 0.00 0.00 0.00 67 1015.8
20260831171303 86 296 4.0 11.0 0.00 0.00 0.00 67 1015.8
20260831171203 86 296 4.0 11.0 0.00 0.00 0.00 67 1015.8
20260831171103 86 296 4.0 11.0 0.00 0.00 0.00 67 1015.8
20260831171003 86 296 4.0 11.0 0.00 0.00 0.00 67 1015.8
20260831170903 86 295 5.0 11.0 0.00 0.00 0.00 66 1015.8
20260831170803 86 295 5.0 11.0 0.00 0.00 0.00 66 1015.8
20260831170703 86 295 5.0 10.0 0.00 0.00 0.00 66 1015.8
20260831170603 86 294 5.0 10.0 0.00 0.00 0.00 66 1015.8
20260831170504 86 294 5.0 10.0 0.00 0.00 0.00 66 1015.7
20260831170403 86 295 5.0 10.0 0.00 0.00 0.00 66 1015.7
20260831170303 86 295 5.0 10.0 0.00 0.00 0.00 66 1015.7
20260831170203 86 296 5.0 10.0 0.00 0.00 0.00 66 1015.7
20260831170003 86 297 5.0 10.0 0.00 0.00 0.00 66 1015.8
20260831165903 86 298 4.0 10.0 0.00 0.00 0.00 66 1015.8
20260831165803 86 299 4.0 10.0 0.00 0.00 0.00 66 1015.7
20260831165703 86 298 3.0 10.0 0.00 0.00 0.00 66 1015.6
20260831165603 86 298 3.0 10.0 0.00 0.00 0.00 66 1015.6
20260831165503 86 299 3.0 10.0 0.00 0.00 0.00 66 1015.6
20260831165403 87 298 3.0 8.0 0.00 0.00 0.00 66 1015.7
20260831165305 86 299 3.0 8.0 0.00 0.00 0.00 66 1015.7
20260831165203 86 300 3.0 9.0 0.00 0.00 0.00 66 1015.7
20260831165103 86 299 3.0 10.0 0.00 0.00 0.00 66 1015.7
20260831165003 87 296 3.0 12.0 0.00 0.00 0.00 65 1015.6
20260831164903 87 297 4.0 12.0 0.00 0.00 0.00 66 1015.6
20260831164803 87 298 4.0 12.0 0.00 0.00 0.00 66 1015.6
20260831164703 87 299 4.0 12.0 0.00 0.00 0.00 65 1015.7
20260831164603 87 300 4.0 12.0 0.00 0.00 0.00 65 1015.6
20260831164503 87 300 5.0 12.0 0.00 0.00 0.00 65 1015.6
20260831164403 87 299 5.0 12.0 0.00 0.00 0.00 65 1015.6
20260831164303 87 299 5.0 12.0 0.00 0.00 0.00 66 1015.6
20260831164203 87 300 5.0 12.0 0.00 0.00 0.00 65 1015.7
20260831164103 87 299 5.0 12.0 0.00 0.00 0.00 65 1015.6
20260831164003 87 300 4.0 10.0 0.00 0.00 0.00 65 1015.6
20260831163903 87 299 4.0 10.0 0.00 0.00 0.00 65 1015.6
20260831163803 87 299 3.0 10.0 0.00 0.00 0.00 64 1015.6
20260831163703 87 299 3.0 10.0 0.00 0.00 0.00 64 1015.6
20260831163603 87 298 3.0 9.0 0.00 0.00 0.00 65 1015.6
20260831163503 87 297 3.0 8.0 0.00 0.00 0.00 65 1015.5
20260831163403 87 297 3.0 8.0 0.00 0.00 0.00 65 1015.6
20260831163303 87 297 3.0 8.0 0.00 0.00 0.00 65 1015.5
20260831163203 87 297 3.0 9.0 0.00 0.00 0.00 65 1015.6
20260831163103 87 297 3.0 9.0 0.00 0.00 0.00 65 1015.7
20260831163003 87 297 3.0 9.0 0.00 0.00 0.00 65 1015.6
20260831162903 87 298 3.0 9.0 0.00 0.00 0.00 65 1015.6
20260831162803 87 298 3.0 9.0 0.00 0.00 0.00 65 1015.7
20260831162703 87 299 3.0 9.0 0.00 0.00 0.00 64 1015.7
20260831162603 87 300 4.0 9.0 0.00 0.00 0.00 64 1015.7
20260831162503 87 300 4.0 9.0 0.00 0.00 0.00 64 1015.8
20260831162403 87 301 3.0 9.0 0.00 0.00 0.00 64 1015.7
20260831162305 87 302 4.0 10.0 0.00 0.00 0.00 63 1015.8
20260831162203 87 300 4.0 10.0 0.00 0.00 0.00 63 1015.8
20260831162103 87 298 4.0 10.0 0.00 0.00 0.00 63 1015.8
20260831162004 87 299 4.0 10.0 0.00 0.00 0.00 63 1015.7
20260831161904 87 300 4.0 10.0 0.00 0.00 0.00 62 1015.8
20260831161804 87 300 4.0 12.0 0.00 0.00 0.00 62 1015.7
20260831161704 87 299 4.0 12.0 0.00 0.00 0.00 62 1015.7
20260831161604 87 298 4.0 12.0 0.00 0.00 0.00 62 1015.7
20260831161504 87 299 4.0 12.0 0.00 0.00 0.00 62 1015.6
20260831161404 87 298 5.0 12.0 0.00 0.00 0.00 62 1015.6
20260831161304 87 299 5.0 12.0 0.00 0.00 0.00 62 1015.6
20260831161204 87 300 5.0 12.0 0.00 0.00 0.00 62 1015.6
20260831161104 87 302 5.0 12.0 0.00 0.00 0.00 62 1015.6
20260831161004 87 302 5.0 12.0 0.00 0.00 0.00 62 1015.6
20260831160904 87 301 5.0 12.0 0.00 0.00 0.00 62 1015.7
20260831160804 87 300 6.0 11.0 0.00 0.00 0.00 62 1015.8
20260831160704 87 301 6.0 11.0 0.00 0.00 0.00 61 1015.8
20260831160604 87 299 6.0 11.0 0.00 0.00 0.00 61 1015.8
20260831160504 87 300 6.0 11.0 0.00 0.00 0.00 61 1015.7
20260831160404 87 300 6.0 11.0 0.00 0.00 0.00 61 1015.7
20260831160304 87 299 5.0 11.0 0.00 0.00 0.00 61 1015.7
20260831160204 87 299 5.0 11.0 0.00 0.00 0.00 61 1015.6
20260831160104 88 299 5.0 11.0 0.00 0.00 0.00 61 1015.6
20260831160004 88 298 5.0 11.0 0.00 0.00 0.00 61 1015.6
20260831155904 88 298 5.0 11.0 0.00 0.00 0.00 61 1015.6
20260831155804 88 299 5.0 11.0 0.00 0.00 0.00 60 1015.6
20260831155704 88 298 5.0 11.0 0.00 0.00 0.00 60 1015.6
20260831155604 88 300 5.0 10.0 0.00 0.00 0.00 60 1015.6
20260831155504 88 297 5.0 14.0 0.00 0.00 0.00 60 1015.5
20260831155404 88 297 5.0 14.0 0.00 0.00 0.00 60 1015.7
20260831155306 88 296 5.0 14.0 0.00 0.00 0.00 60 1015.7
20260831155204 88 297 5.0 14.0 0.00 0.00 0.00 60 1015.8
20260831155104 88 298 5.0 14.0 0.00 0.00 0.00 60 1015.8
20260831155004 88 297 5.0 14.0 0.00 0.00 0.00 61 1015.8
20260831154904 88 297 5.0 14.0 0.00 0.00 0.00 60 1015.8
20260831154804 88 297 5.0 14.0 0.00 0.00 0.00 61 1015.8
20260831154704 88 297 5.0 14.0 0.00 0.00 0.00 60 1015.8
20260831154604 88 296 5.0 14.0 0.00 0.00 0.00 60 1015.8
20260831154504 88 298 5.0 9.0 0.00 0.00 0.00 60 1015.7
20260831154404 88 299 4.0 9.0 0.00 0.00 0.00 60 1015.7
20260831154304 88 297 4.0 9.0 0.00 0.00 0.00 60 1015.7
20260831154204 88 298 4.0 9.0 0.00 0.00 0.00 60 1015.7
20260831154104 88 296 4.0 9.0 0.00 0.00 0.00 61 1015.6
20260831154004 88 298 4.0 10.0 0.00 0.00 0.00 60 1015.7
20260831153904 88 300 4.0 10.0 0.00 0.00 0.00 60 1015.6
20260831153804 88 300 4.0 10.0 0.00 0.00 0.00 60 1015.7
20260831153704 88 300 4.0 10.0 0.00 0.00 0.00 60 1015.8
20260831153604 89 300 4.0 10.0 0.00 0.00 0.00 60 1015.7
20260831153504 89 301 4.0 10.0 0.00 0.00 0.00 60 1015.6
20260831153404 89 301 4.0 10.0 0.00 0.00 0.00 59 1015.6
20260831153304 89 302 4.0 10.0 0.00 0.00 0.00 59 1015.6
20260831153204 89 303 4.0 10.0 0.00 0.00 0.00 59 1015.6
20260831153104 89 303 4.0 10.0 0.00 0.00 0.00 59 1015.6
20260831153004 89 304 4.0 11.0 0.00 0.00 0.00 59 1015.7
20260831152903 89 303 3.0 11.0 0.00 0.00 0.00 58 1015.6
20260831152804 89 303 3.0 11.0 0.00 0.00 0.00 58 1015.5
20260831152703 89 302 4.0 11.0 0.00 0.00 0.00 58 1015.5
20260831152604 89 303 4.0 11.0 0.00 0.00 0.00 58 1015.5
20260831152504 89 303 4.0 11.0 0.00 0.00 0.00 58 1015.5
20260831152403 89 303 4.0 11.0 0.00 0.00 0.00 57 1015.5
20260831152306 89 303 4.0 11.0 0.00 0.00 0.00 57 1015.5
20260831152204 89 301 5.0 11.0 0.00 0.00 0.00 57 1015.5
20260831152103 89 301 4.0 11.0 0.00 0.00 0.00 57 1015.5
20260831152003 89 301 4.0 11.0 0.00 0.00 0.00 57 1015.5
20260831151904 89 300 4.0 11.0 0.00 0.00 0.00 57 1015.5
20260831151804 89 300 4.0 11.0 0.00 0.00 0.00 57 1015.4
20260831151703 89 301 3.0 12.0 0.00 0.00 0.00 57 1015.4
20260831151604 89 300 3.0 12.0 0.00 0.00 0.00 57 1015.5
20260831151503 89 299 3.0 12.0 0.00 0.00 0.00 58 1015.5
20260831151403 89 298 3.0 12.0 0.00 0.00 0.00 57 1015.5
20260831151303 89 299 3.0 12.0 0.00 0.00 0.00 57 1015.4
20260831151203 89 300 3.0 12.0 0.00 0.00 0.00 57 1015.4
20260831151103 89 300 3.0 12.0 0.00 0.00 0.00 57 1015.5
20260831151003 89 299 3.0 12.0 0.00 0.00 0.00 57 1015.4
20260831150903 89 300 4.0 12.0 0.00 0.00 0.00 57 1015.4
20260831150803 89 300 4.0 12.0 0.00 0.00 0.00 57 1015.4
20260831150703 89 300 3.0 9.0 0.00 0.00 0.00 57 1015.4
20260831150603 89 300 3.0 9.0 0.00 0.00 0.00 57 1015.4
20260831150503 89 301 3.0 9.0 0.00 0.00 0.00 57 1015.5
20260831150404 89 299 3.0 11.0 0.00 0.00 0.00 57 1015.4
20260831150303 89 298 4.0 11.0 0.00 0.00 0.00 57 1015.4
20260831150203 89 296 4.0 11.0 0.00 0.00 0.00 57 1015.4
20260831150103 89 297 4.0 11.0 0.00 0.00 0.00 57 1015.3
20260831150004 89 297 4.0 11.0 0.00 0.00 0.00 57 1015.5
20260831145903 89 297 5.0 11.0 0.00 0.00 0.00 57 1015.4
20260831145803 89 297 5.0 11.0 0.00 0.00 0.00 57 1015.4
20260831145703 89 297 5.0 11.0 0.00 0.00 0.00 57 1015.5
20260831145603 89 299 6.0 11.0 0.00 0.00 0.00 57 1015.3
20260831145503 89 299 6.0 11.0 0.00 0.00 0.00 57 1015.5
20260831145403 89 300 6.0 10.0 0.00 0.00 0.00 57 1015.5
20260831145306 89 300 6.0 10.0 0.00 0.00 0.00 57 1015.4
20260831145203 89 299 6.0 10.0 0.00 0.00 0.00 57 1015.4
20260831145103 89 299 6.0 10.0 0.00 0.00 0.00 57 1015.4
20260831145003 90 299 5.0 10.0 0.00 0.00 0.00 56 1015.4
20260831144903 34 298 5.0 10.0 0.00 0.00 0.00 56 1015.3
20260831144803 90 298 5.0 10.0 0.00 0.00 0.00 56 1015.3
20260831144703 90 300 5.0 11.0 0.00 0.00 0.00 56 1015.3
20260831144603 90 298 5.0 11.0 0.00 0.00 0.00 56 1015.3
20260831144503 90 296 5.0 11.0 0.00 0.00 0.00 56 1015.4
20260831144403 90 297 5.0 11.0 0.00 0.00 0.00 56 1015.4
20260831144303 90 297 4.0 11.0 0.00 0.00 0.00 56 1015.4
20260831144203 90 297 4.0 11.0 0.00 0.00 0.00 55 1015.4
20260831144103 90 297 4.0 11.0 0.00 0.00 0.00 55 1015.3
20260831144003 90 299 4.0 15.0 0.00 0.00 0.00 55 1015.4
20260831143903 90 299 5.0 15.0 0.00 0.00 0.00 55 1015.4
20260831143803 90 300 4.0 15.0 0.00 0.00 0.00 55 1015.4
20260831143703 90 300 4.0 15.0 0.00 0.00 0.00 55 1015.5
20260831143603 90 301 4.0 15.0 0.00 0.00 0.00 55 1015.5
20260831143503 90 300 4.0 15.0 0.00 0.00 0.00 55 1015.5
20260831143403 90 300 4.0 15.0 0.00 0.00 0.00 55 1015.4
20260831143303 90 301 4.0 15.0 0.00 0.00 0.00 55 1015.5
20260831143203 90 303 4.0 15.0 0.00 0.00 0.00 54 1015.6
20260831143103 90 303 3.0 15.0 0.00 0.00 0.00 54 1015.6
20260831143003 90 304 3.0 7.0 0.00 0.00 0.00 53 1015.5
20260831142903 90 303 3.0 7.0 0.00 0.00 0.00 53 1015.5
20260831142803 90 303 3.0 7.0 0.00 0.00 0.00 53 1015.5
20260831142703 90 302 3.0 9.0 0.00 0.00 0.00 53 1015.5
20260831142603 91 304 3.0 9.0 0.00 0.00 0.00 53 1015.5
20260831142503 91 307 3.0 9.0 0.00 0.00 0.00 53 1015.6
20260831142403 91 306 3.0 9.0 0.00 0.00 0.00 53 1015.5
20260831142306 91 306 3.0 9.0 0.00 0.00 0.00 53 1015.6
20260831142203 91 303 3.0 9.0 0.00 0.00 0.00 54 1015.5
20260831142103 91 301 3.0 9.0 0.00 0.00 0.00 54 1015.5
20260831142003 91 300 3.0 9.0 0.00 0.00 0.00 53 1015.5
20260831141903 90 300 3.0 9.0 0.00 0.00 0.00 53 1015.5
20260831141803 91 301 4.0 9.0 0.00 0.00 0.00 53 1015.5
20260831141703 91 301 4.0 9.0 0.00 0.00 0.00 54 1015.5
20260831141603 90 298 3.0 9.0 0.00 0.00 0.00 54 1015.5
20260831141503 90 298 3.0 9.0 0.00 0.00 0.00 54 1015.5
20260831141403 90 299 3.0 9.0 0.00 0.00 0.00 54 1015.5
20260831141303 91 300 3.0 9.0 0.00 0.00 0.00 54 1015.6
20260831141203 91 301 3.0 9.0 0.00 0.00 0.00 54 1015.6
20260831141103 91 300 3.0 9.0 0.00 0.00 0.00 54 1015.5
20260831141003 91 299 3.0 9.0 0.00 0.00 0.00 54 1015.6
20260831140903 91 300 3.0 9.0 0.00 0.00 0.00 53 1015.5
20260831140803 91 299 3.0 9.0 0.00 0.00 0.00 53 1015.6
20260831140703 91 300 3.0 11.0 0.00 0.00 0.00 53 1015.5
20260831140603 91 301 3.0 11.0 0.00 0.00 0.00 53 1015.6
20260831140503 91 301 3.0 11.0 0.00 0.00 0.00 53 1015.6
20260831140403 91 299 3.0 11.0 0.00 0.00 0.00 53 1015.5
20260831140303 91 299 4.0 11.0 0.00 0.00 0.00 53 1015.7
20260831140203 91 299 4.0 11.0 0.00 0.00 0.00 53 1015.6
20260831140003 91 300 4.0 11.0 0.00 0.00 0.00 53 1015.6
20260831135903 91 299 4.0 11.0 0.00 0.00 0.00 53 1015.6
20260831135803 91 300 3.0 11.0 0.00 0.00 0.00 53 1015.6
20260831135703 91 300 3.0 8.0 0.00 0.00 0.00 53 1015.5
20260831135603 91 298 3.0 8.0 0.00 0.00 0.00 53 1015.6
20260831135503 91 298 3.0 8.0 0.00 0.00 0.00 52 1015.6
20260831135403 91 298 2.0 8.0 0.00 0.00 0.00 51 1015.6
20260831135306 91 299 2.0 8.0 0.00 0.00 0.00 51 1015.6
20260831135203 91 302 2.0 8.0 0.00 0.00 0.00 51 1015.5
20260831135103 91 301 2.0 8.0 0.00 0.00 0.00 51 1015.6
20260831135003 91 305 2.0 7.0 0.00 0.00 0.00 51 1015.6
20260831134903 91 308 2.0 9.0 0.00 0.00 0.00 51 1015.6
20260831134803 91 309 2.0 9.0 0.00 0.00 0.00 51 1015.6
20260831134703 91 308 2.0 9.0 0.00 0.00 0.00 51 1015.6
20260831134603 91 307 2.0 9.0 0.00 0.00 0.00 51 1015.5
20260831134503 91 306 3.0 10.0 0.00 0.00 0.00 51 1015.5
20260831134403 91 305 3.0 10.0 0.00 0.00 0.00 50 1015.6
20260831134303 91 303 3.0 10.0 0.00 0.00 0.00 50 1015.5
20260831134203 91 302 4.0 10.0 0.00 0.00 0.00 50 1015.5
20260831134104 91 303 4.0 10.0 0.00 0.00 0.00 51 1015.5
20260831134004 91 301 5.0 10.0 0.00 0.00 0.00 51 1015.5
20260831133904 91 300 5.0 10.0 0.00 0.00 0.00 51 1015.5
20260831133804 91 300 4.0 10.0 0.00 0.00 0.00 51 1015.5
20260831133704 91 300 4.0 10.0 0.00 0.00 0.00 51 1015.5
20260831133604 91 300 4.0 10.0 0.00 0.00 0.00 51 1015.5
20260831133504 92 299 4.0 10.0 0.00 0.00 0.00 50 1015.6
20260831133404 92 300 4.0 11.0 0.00 0.00 0.00 50 1015.6
20260831133304 92 300 4.0 11.0 0.00 0.00 0.00 50 1015.5
20260831133204 92 300 4.0 11.0 0.00 0.00 0.00 49 1015.5
20260831133104 92 299 4.0 11.0 0.00 0.00 0.00 48 1015.5
20260831133004 92 300 3.0 11.0 0.00 0.00 0.00 48 1015.6
20260831132904 92 300 3.0 11.0 0.00 0.00 0.00 48 1015.6
20260831132804 92 300 3.0 11.0 0.00 0.00 0.00 48 1015.6
20260831132704 92 299 3.0 11.0 0.00 0.00 0.00 47 1015.5
20260831132604 92 298 3.0 11.0 0.00 0.00 0.00 47 1015.5
20260831132504 92 299 3.0 11.0 0.00 0.00 0.00 47 1015.6
20260831132404 92 298 3.0 8.0 0.00 0.00 0.00 46 1015.5
20260831132306 92 299 3.0 8.0 0.00 0.00 0.00 45 1015.5
20260831132204 92 299 3.0 8.0 0.00 0.00 0.00 45 1015.5
20260831132104 92 298 3.0 8.0 0.00 0.00 0.00 45 1015.6
20260831132004 92 298 3.0 8.0 0.00 0.00 0.00 45 1015.6
20260831131904 92 298 2.0 8.0 0.00 0.00 0.00 46 1015.6
20260831131804 92 297 3.0 9.0 0.00 0.00 0.00 46 1015.6
20260831131704 92 299 3.0 10.0 0.00 0.00 0.00 46 1015.5
20260831131604 92 300 3.0 10.0 0.00 0.00 0.00 46 1015.5
20260831131504 92 301 3.0 10.0 0.00 0.00 0.00 45 1015.5
20260831131404 92 302 3.0 10.0 0.00 0.00 0.00 45 1015.5
20260831131304 92 301 4.0 10.0 0.00 0.00 0.00 44 1015.6
20260831131204 92 300 3.0 10.0 0.00 0.00 0.00 44 1015.5
20260831131104 93 300 3.0 10.0 0.00 0.00 0.00 44 1015.5
20260831131004 93 302 3.0 10.0 0.00 0.00 0.00 45 1015.7
20260831130904 93 302 4.0 10.0 0.00 0.00 0.00 45 1015.7
20260831130804 93 304 3.0 10.0 0.00 0.00 0.00 44 1015.7
20260831130704 93 302 3.0 7.0 0.00 0.00 0.00 44 1015.8
20260831130604 93 301 3.0 7.0 0.00 0.00 0.00 44 1015.7
20260831130504 93 300 3.0 7.0 0.00 0.00 0.00 44 1015.6
20260831130404 93 299 3.0 7.0 0.00 0.00 0.00 44 1015.6
20260831130304 93 301 3.0 7.0 0.00 0.00 0.00 43 1015.5
20260831130204 93 301 3.0 7.0 0.00 0.00 0.00 44 1015.5
20260831130104 93 301 3.0 7.0 0.00 0.00 0.00 43 1015.6
20260831130004 93 299 2.0 7.0 0.00 0.00 0.00 43 1015.5
20260831125904 93 297 2.0 7.0 0.00 0.00 0.00 43 1015.6
20260831125804 93 297 2.0 7.0 0.00 0.00 0.00 42 1015.7
20260831125704 93 298 2.0 7.0 0.00 0.00 0.00 43 1015.7
20260831125604 93 299 2.0 7.0 0.00 0.00 0.00 42 1015.7
20260831125504 93 299 1.0 7.0 0.00 0.00 0.00 42 1015.6
20260831125404 93 300 1.0 5.0 0.00 0.00 0.00 41 1015.6
20260831125306 93 299 1.0 5.0 0.00 0.00 0.00 41 1015.6
20260831125204 93 300 1.0 6.0 0.00 0.00 0.00 40 1015.5
20260831125103 93 297 1.0 7.0 0.00 0.00 0.00 40 1015.5
20260831125004 93 296 2.0 9.0 0.00 0.00 0.00 39 1015.5
20260831124904 93 297 1.0 9.0 0.00 0.00 0.00 38 1015.5
20260831124804 93 296 1.0 9.0 0.00 0.00 0.00 39 1015.6
20260831124703 93 295 1.0 9.0 0.00 0.00 0.00 39 1015.5
20260831124603 93 295 1.0 9.0 0.00 0.00 0.00 39 1015.6
20260831124503 93 295 1.0 9.0 0.00 0.00 0.00 38 1015.5
20260831124403 93 294 1.0 9.0 0.00 0.00 0.00 38 1015.6
20260831124303 93 294 1.0 9.0 0.00 0.00 0.00 38 1015.6
20260831124203 93 292 1.0 9.0 0.00 0.00 0.00 38 1015.5
20260831124103 93 293 1.0 9.0 0.00 0.00 0.00 38 1015.5
20260831124003 93 294 1.0 6.0 0.00 0.00 0.00 38 1015.5
20260831123903 93 294 1.0 6.0 0.00 0.00 0.00 39 1015.5
20260831123803 93 294 1.0 6.0 0.00 0.00 0.00 40 1015.5
20260831123703 93 298 1.0 6.0 0.00 0.00 0.00 40 1015.5
20260831123603 93 300 1.0 6.0 0.00 0.00 0.00 40 1015.4
20260831123503 93 296 1.0 6.0 0.00 0.00 0.00 39 1015.5
20260831123403 93 296 1.0 6.0 0.00 0.00 0.00 39 1015.5
20260831123303 93 297 1.0 6.0 0.00 0.00 0.00 39 1015.5
20260831123203 93 303 1.0 6.0 0.00 0.00 0.00 40 1015.4
20260831123103 93 315 0.0 5.0 0.00 0.00 0.00 41 1015.4
20260831123003 93 305 0.0 5.0 0.00 0.00 0.00 41 1015.6
20260831122903 93 303 0.0 5.0 0.00 0.00 0.00 40 1015.6
20260831122803 93 303 1.0 5.0 0.00 0.00 0.00 40 1015.6
20260831122703 93 324 1.0 5.0 0.00 0.00 0.00 40 1015.5
20260831122603 93 311 1.0 5.0 0.00 0.00 0.00 40 1015.5
20260831122503 93 315 1.0 6.0 0.00 0.00 0.00 40 1015.6
20260831122403 93 320 1.0 6.0 0.00 0.00 0.00 40 1015.6
20260831122305 93 330 1.0 6.0 0.00 0.00 0.00 42 1015.6
20260831122203 93 28 1.0 6.0 0.00 0.00 0.00 42 1015.6
20260831122103 93 22 1.0 6.0 0.00 0.00 0.00 41 1015.6
20260831122003 93 56 1.0 6.0 0.00 0.00 0.00 41 1015.6
20260831121903 93 49 1.0 6.0 0.00 0.00 0.00 39 1015.5
20260831121803 93 27 1.0 6.0 0.00 0.00 0.00 39 1015.6
20260831121703 93 325 1.0 6.0 0.00 0.00 0.00 39 1015.6
20260831121603 93 349 0.0 6.0 0.00 0.00 0.00 41 1015.6
20260831121503 93 108 0.0 3.0 0.00 0.00 0.00 40 1015.7
20260831121403 93 99 0.0 3.0 0.00 0.00 0.00 40 1015.6
20260831121303 93 115 0.0 3.0 0.00 0.00 0.00 40 1015.5
20260831121203 93 114 0.0 3.0 0.00 0.00 0.00 40 1015.6
20260831121103 93 116 0.0 3.0 0.00 0.00 0.00 39 1015.6
20260831121003 93 114 1.0 4.0 0.00 0.00 0.00 39 1015.6
20260831120903 93 113 1.0 4.0 0.00 0.00 0.00 40 1015.6
20260831120803 93 113 1.0 4.0 0.00 0.00 0.00 40 1015.7
20260831120703 93 113 1.0 4.0 0.00 0.00 0.00 41 1015.6
20260831120603 93 114 1.0 4.0 0.00 0.00 0.00 41 1015.6
20260831120503 93 113 1.0 4.0 0.00 0.00 0.00 40 1015.7
20260831120403 93 112 1.0 4.0 0.00 0.00 0.00 39 1015.6
20260831120303 93 112 1.0 4.0 0.00 0.00 0.00 38 1015.7
20260831120203 93 109 1.0 6.0 0.00 0.00 0.00 38 1015.7
20260831120103 93 97 1.0 6.0 0.00 0.00 0.00 38 1015.6
20260831120003 93 356 1.0 6.0 0.00 0.00 0.00 38 1015.5
20260831115903 93 319 2.0 6.0 0.00 0.00 0.00 38 1015.7
20260831115803 93 310 2.0 6.0 0.00 0.00 0.00 38 1015.6
20260831115703 93 313 2.0 6.0 0.00 0.00 0.00 36 1015.6
20260831115603 93 313 3.0 6.0 0.00 0.00 0.00 36 1015.6
20260831115503 93 315 3.0 6.0 0.00 0.00 0.00 37 1015.7